KLM611 EHAM-KORD

Flight info

Callsign KLM611
Flight time 8h 39m
Altitude 34000
Route BERGI L602 NALAX L46 GETNO DCT KUGUR DCT KESIX DCT SUNOT/M082F350 DCT 58N020W 60N030W 61N040W 62N050W DCT NIFTY/M082F360 DCT PEPKI/N0474F360 DCT LOPVI DCT PELSI DCT STAFE/N0484F380 N890B SSM WYNDE3
Aircraft B77W/H-SDE1E2E3FGHIJ2J3J4J5M1RWXY/LB1D1

Departure

Time 2026-05-07 19:48
Airport Amsterdam Airport Schiphol (EHAM)

Arrival

Time 2026-05-08 04:27
Airport Chicago O'Hare International Airport (KORD)
Time Latitude Longitude Altitude Speed Heading
2026-05-07 19:29 52.31353 4.75570 3 ft 0 kts 86°
2026-05-07 19:40 52.31352 4.75553 4 ft 2 kts 85°
2026-05-07 19:40 52.31351 4.75526 5 ft 2 kts 84°
2026-05-07 19:40 52.31348 4.75499 5 ft 2 kts 80°
2026-05-07 19:40 52.31345 4.75472 6 ft 2 kts 69°
2026-05-07 19:41 52.31336 4.75450 7 ft 2 kts
2026-05-07 19:41 52.31330 4.75449 7 ft 0 kts 357°
2026-05-07 19:43 52.31333 4.75449 6 ft 2 kts 357°
2026-05-07 19:43 52.31364 4.75446 5 ft 7 kts 357°
2026-05-07 19:43 52.31410 4.75442 4 ft 7 kts 357°
2026-05-07 19:44 52.31460 4.75437 4 ft 8 kts 353°
2026-05-07 19:44 52.31501 4.75385 4 ft 8 kts 294°
2026-05-07 19:44 52.31506 4.75293 3 ft 8 kts 271°
2026-05-07 19:44 52.31503 4.75174 3 ft 11 kts 267°
2026-05-07 19:45 52.31499 4.75049 4 ft 11 kts 267°
2026-05-07 19:45 52.31494 4.74923 4 ft 11 kts 266°
2026-05-07 19:45 52.31489 4.74798 4 ft 11 kts 266°
2026-05-07 19:45 52.31498 4.74693 4 ft 9 kts 309°
2026-05-07 19:46 52.31558 4.74663 4 ft 9 kts 354°
2026-05-07 19:46 52.31621 4.74666 4 ft 9 kts
2026-05-07 19:46 52.31659 4.74694 4 ft 6 kts 57°
2026-05-07 19:46 52.31665 4.74737 4 ft 0 kts 85°
2026-05-07 19:47 52.31666 4.74752 4 ft 12 kts 85°
2026-05-07 19:47 52.31685 4.75311 2 ft 85 kts 86°
2026-05-07 19:47 52.31732 4.76644 3 ft 147 kts 86°
2026-05-07 19:47 52.31807 4.78526 148 ft 177 kts 85°
2026-05-07 19:48 52.31891 4.80551 664 ft 183 kts 81°
2026-05-07 19:48 52.32446 4.82373 1101 ft 187 kts 36°
2026-05-07 19:48 52.33722 4.82983 1423 ft 207 kts 356°
2026-05-07 19:48 52.35160 4.82147 1680 ft 235 kts 333°
2026-05-07 19:49 52.36677 4.80817 2154 ft 253 kts 333°
2026-05-07 19:49 52.38257 4.79439 2976 ft 260 kts 332°
2026-05-07 19:49 52.39696 4.77617 3761 ft 264 kts 313°
2026-05-07 19:49 52.40958 4.75391 4619 ft 268 kts 314°
2026-05-07 19:50 52.42269 4.73219 5535 ft 270 kts 314°
2026-05-07 19:50 52.43607 4.71031 6421 ft 272 kts 314°
2026-05-07 19:50 52.44958 4.68830 7206 ft 275 kts 314°
2026-05-07 19:50 52.46311 4.66643 7957 ft 277 kts 317°
2026-05-07 19:51 52.47971 4.65012 8562 ft 283 kts 339°
2026-05-07 19:51 52.49862 4.63885 9308 ft 287 kts 339°
2026-05-07 19:51 52.51713 4.62749 10142 ft 288 kts 339°
2026-05-07 19:51 52.53616 4.61554 10699 ft 300 kts 338°
2026-05-07 19:52 52.55651 4.60255 10893 ft 326 kts 338°
2026-05-07 19:52 52.57840 4.58845 11093 ft 350 kts 338°
2026-05-07 19:52 52.60176 4.57330 11444 ft 368 kts 338°
2026-05-07 19:52 52.62586 4.55762 12109 ft 377 kts 338°
2026-05-07 19:53 52.65046 4.54159 12892 ft 383 kts 338°
2026-05-07 19:53 52.67455 4.52350 13633 ft 383 kts 326°
2026-05-07 19:53 52.69392 4.49314 14247 ft 385 kts 304°
2026-05-07 19:53 52.70870 4.45619 14900 ft 389 kts 302°
2026-05-07 19:54 52.72376 4.41926 15593 ft 394 kts 303°
2026-05-07 19:54 52.73927 4.38210 16347 ft 398 kts 303°
2026-05-07 19:54 52.75499 4.34379 17100 ft 402 kts 301°
2026-05-07 19:54 52.76929 4.30390 17809 ft 406 kts 298°
2026-05-07 19:55 52.78297 4.26280 18491 ft 411 kts 297°
2026-05-07 19:55 52.79668 4.22084 19124 ft 415 kts 297°
2026-05-07 19:55 52.81049 4.17873 19772 ft 418 kts 297°
2026-05-07 19:55 52.82436 4.13679 20417 ft 422 kts 297°
2026-05-07 19:56 52.83876 4.09360 21064 ft 426 kts 297°
2026-05-07 19:56 52.85300 4.05106 21644 ft 430 kts 298°
2026-05-07 19:56 52.86759 4.00755 22252 ft 433 kts 298°
2026-05-07 19:56 52.88228 3.96371 22849 ft 437 kts 297°
2026-05-07 19:57 52.89713 3.91931 23443 ft 441 kts 297°
2026-05-07 19:57 52.91185 3.87521 23925 ft 445 kts 297°
2026-05-07 19:57 52.92690 3.83001 24418 ft 448 kts 297°
2026-05-07 19:57 52.94203 3.78450 24887 ft 452 kts 297°
2026-05-07 19:58 52.95725 3.73867 25343 ft 455 kts 297°
2026-05-07 19:58 52.97252 3.69256 25796 ft 458 kts 297°
2026-05-07 19:58 52.98797 3.64586 26223 ft 462 kts 297°
2026-05-07 19:58 53.00347 3.59898 26631 ft 466 kts 297°
2026-05-07 19:59 53.01913 3.55155 27050 ft 469 kts 297°
2026-05-07 19:59 53.03472 3.50450 27452 ft 472 kts 298°
2026-05-07 19:59 53.05063 3.45659 27842 ft 476 kts 298°
2026-05-07 19:59 53.06669 3.40812 28200 ft 479 kts 298°
2026-05-07 20:00 53.08272 3.35938 28564 ft 482 kts 296°
2026-05-07 20:00 53.09678 3.30859 28909 ft 484 kts 290°
2026-05-07 20:00 53.10794 3.25559 29239 ft 486 kts 285°
2026-05-07 20:00 53.11588 3.20071 29560 ft 488 kts 281°
2026-05-07 20:01 53.12290 3.14589 29859 ft 490 kts 281°
2026-05-07 20:01 53.12991 3.09015 30147 ft 493 kts 281°
2026-05-07 20:01 53.13701 3.03420 30384 ft 495 kts 281°
2026-05-07 20:01 53.14425 2.97789 30614 ft 497 kts 281°
2026-05-07 20:02 53.15159 2.92148 30844 ft 499 kts 281°
2026-05-07 20:02 53.15898 2.86491 31078 ft 500 kts 281°
2026-05-07 20:02 53.16638 2.80816 31382 ft 499 kts 281°
2026-05-07 20:02 53.17364 2.75239 31713 ft 498 kts 281°
2026-05-07 20:03 53.18095 2.69583 32081 ft 496 kts 281°
2026-05-07 20:03 53.18818 2.63965 32381 ft 495 kts 281°
2026-05-07 20:03 53.19537 2.58352 32670 ft 494 kts 281°
2026-05-07 20:03 53.20253 2.52745 32952 ft 494 kts 281°
2026-05-07 20:04 53.20954 2.47225 33242 ft 493 kts 280°
2026-05-07 20:04 53.21657 2.41629 33525 ft 492 kts 280°
2026-05-07 20:04 53.22355 2.36040 33793 ft 491 kts 280°
2026-05-07 20:04 53.23049 2.30455 34028 ft 492 kts 280°
2026-05-07 20:05 53.24437 2.19220 34100 ft 494 kts 280°
2026-05-07 20:05 53.25810 2.08032 34107 ft 490 kts 280°
2026-05-07 20:06 53.27166 1.96897 34113 ft 488 kts 280°
2026-05-07 20:06 53.28506 1.85794 34105 ft 487 kts 279°
2026-05-07 20:07 53.29829 1.74749 34110 ft 488 kts 279°
2026-05-07 20:07 53.31153 1.63599 34102 ft 488 kts 279°
2026-05-07 20:08 53.32467 1.52450 34104 ft 489 kts 279°
2026-05-07 20:08 53.33941 1.41317 34104 ft 490 kts 282°
2026-05-07 20:09 53.35615 1.30222 34105 ft 491 kts 282°
2026-05-07 20:10 53.38064 1.13579 34098 ft 491 kts 282°
2026-05-07 20:10 53.39640 1.02520 34096 ft 491 kts 282°
2026-05-07 20:11 53.41211 0.91383 34095 ft 490 kts 281°
2026-05-07 20:11 53.42773 0.80248 34096 ft 490 kts 281°
2026-05-07 20:12 53.44316 0.69174 34088 ft 490 kts 281°
2026-05-07 20:12 53.45855 0.58047 34086 ft 489 kts 281°
2026-05-07 20:13 53.47383 0.46928 34083 ft 489 kts 281°
2026-05-07 20:13 53.48891 0.35879 34082 ft 488 kts 281°
2026-05-07 20:14 53.50411 0.24742 34077 ft 488 kts 281°
2026-05-07 20:14 53.51919 0.13626 34064 ft 488 kts 281°
2026-05-07 20:15 53.53409 0.02487 34071 ft 487 kts 281°
2026-05-07 20:15 53.54863 -0.08590 34064 ft 487 kts 280°
2026-05-07 20:16 53.56319 -0.19744 34089 ft 487 kts 280°
2026-05-07 20:16 53.57754 -0.30802 34087 ft 487 kts 280°
2026-05-07 20:17 53.59191 -0.41940 34074 ft 487 kts 280°
2026-05-07 20:17 53.60621 -0.53090 34067 ft 487 kts 280°
2026-05-07 20:18 53.62039 -0.64234 34069 ft 486 kts 280°
2026-05-07 20:18 53.63450 -0.75408 34062 ft 486 kts 280°
2026-05-07 20:19 53.64838 -0.86478 34057 ft 485 kts 280°
2026-05-07 20:19 53.66226 -0.97641 34048 ft 485 kts 279°
2026-05-07 20:20 53.67594 -1.08712 34049 ft 484 kts 279°
2026-05-07 20:20 53.68959 -1.19838 34042 ft 484 kts 279°
2026-05-07 20:21 53.70314 -1.30977 34034 ft 483 kts 279°
2026-05-07 20:21 53.71657 -1.42090 34029 ft 482 kts 279°
2026-05-07 20:22 53.72940 -1.53133 34027 ft 481 kts 279°
2026-05-07 20:22 53.74189 -1.64241 34027 ft 480 kts 278°
2026-05-07 20:23 53.75398 -1.75351 34028 ft 481 kts 278°
2026-05-07 20:23 53.76602 -1.86553 34032 ft 487 kts 278°
2026-05-07 20:24 53.77812 -1.97859 34035 ft 491 kts 278°
2026-05-07 20:24 53.79023 -2.09251 34031 ft 494 kts 278°
2026-05-07 20:25 53.80230 -2.20707 34029 ft 495 kts 278°
2026-05-07 20:25 53.81427 -2.32189 34024 ft 495 kts 278°
2026-05-07 20:26 53.82611 -2.43650 34024 ft 494 kts 278°
2026-05-07 20:26 53.83779 -2.55085 34015 ft 492 kts 278°
2026-05-07 20:27 53.84935 -2.66500 34015 ft 490 kts 277°
2026-05-07 20:27 53.86069 -2.77819 34009 ft 489 kts 277°
2026-05-07 20:28 53.87196 -2.89180 34014 ft 488 kts 277°
2026-05-07 20:28 53.88307 -3.00494 34017 ft 486 kts 277°
2026-05-07 20:29 53.89407 -3.11810 34007 ft 486 kts 277°
2026-05-07 20:29 53.90312 -3.21204 34013 ft 485 kts 277°
2026-05-07 20:30 53.91389 -3.32489 34018 ft 485 kts 277°
2026-05-07 20:30 53.92485 -3.43797 34011 ft 485 kts 279°
2026-05-07 20:31 53.94390 -3.54741 34009 ft 488 kts 289°
2026-05-07 20:31 53.97236 -3.65262 34011 ft 490 kts 293°
2026-05-07 20:32 54.00176 -3.75694 34008 ft 490 kts 292°
2026-05-07 20:32 54.03093 -3.86175 34005 ft 490 kts 292°
2026-05-07 20:33 54.05980 -3.96704 34002 ft 491 kts 292°
2026-05-07 20:33 54.08834 -4.07194 34001 ft 491 kts 292°
2026-05-07 20:34 54.11695 -4.17761 33998 ft 491 kts 292°
2026-05-07 20:34 54.14553 -4.28358 33996 ft 492 kts 291°
2026-05-07 20:35 54.17402 -4.38969 33996 ft 492 kts 291°
2026-05-07 20:35 54.20243 -4.49599 33997 ft 492 kts 291°
2026-05-07 20:36 54.23061 -4.60194 33996 ft 492 kts 291°
2026-05-07 20:36 54.25887 -4.70868 33989 ft 492 kts 291°
2026-05-07 20:37 54.28703 -4.81552 33985 ft 492 kts 291°
2026-05-07 20:37 54.31490 -4.92180 33978 ft 491 kts 291°
2026-05-07 20:38 54.34280 -5.02867 33970 ft 491 kts 291°
2026-05-07 20:38 54.37060 -5.13567 33969 ft 491 kts 290°
2026-05-07 20:39 54.39832 -5.24291 33961 ft 491 kts 290°
2026-05-07 20:39 54.42589 -5.35005 33959 ft 490 kts 290°
2026-05-07 20:40 54.45335 -5.45727 33953 ft 490 kts 290°
2026-05-07 20:40 54.48053 -5.56389 33950 ft 490 kts 290°
2026-05-07 20:41 54.50779 -5.67135 33946 ft 490 kts 290°
2026-05-07 20:41 54.53496 -5.77900 33941 ft 490 kts 290°
2026-05-07 20:42 54.56206 -5.88686 33943 ft 490 kts 290°
2026-05-07 20:42 54.58906 -5.99489 33952 ft 490 kts 290°
2026-05-07 20:43 54.61579 -6.10234 33939 ft 491 kts 290°
2026-05-07 20:43 54.64260 -6.21064 33935 ft 491 kts 290°
2026-05-07 20:44 54.66940 -6.31941 33946 ft 491 kts 289°
2026-05-07 20:44 54.69601 -6.42800 33939 ft 490 kts 289°
2026-05-07 20:45 54.72235 -6.53597 33943 ft 490 kts 289°
2026-05-07 20:45 54.74876 -6.64481 33946 ft 489 kts 289°
2026-05-07 20:46 54.77499 -6.75340 33948 ft 489 kts 289°
2026-05-07 20:46 54.80109 -6.86202 33951 ft 488 kts 289°
2026-05-07 20:47 54.82705 -6.97059 33959 ft 488 kts 288°
2026-05-07 20:47 54.85294 -7.07948 33941 ft 488 kts 288°
2026-05-07 20:48 54.87872 -7.18839 33948 ft 487 kts 288°
2026-05-07 20:48 54.90440 -7.29741 33948 ft 487 kts 288°
2026-05-07 20:49 54.92980 -7.40585 33948 ft 488 kts 287°
2026-05-07 20:49 54.95530 -7.51522 33946 ft 488 kts 287°
2026-05-07 20:50 54.98066 -7.62461 33946 ft 487 kts 287°
2026-05-07 20:50 55.00596 -7.73425 33947 ft 487 kts 287°
2026-05-07 20:51 55.03119 -7.84415 33953 ft 487 kts 287°
2026-05-07 20:51 55.05625 -7.95392 33935 ft 487 kts 286°
2026-05-07 20:52 55.08118 -8.06367 33944 ft 487 kts 286°
2026-05-07 20:52 55.10608 -8.17385 33946 ft 487 kts 286°
2026-05-07 20:53 55.13083 -8.28391 33941 ft 487 kts 286°
2026-05-07 20:53 55.15537 -8.39370 33938 ft 487 kts 285°
2026-05-07 20:54 55.17992 -8.50407 33935 ft 487 kts 285°
2026-05-07 20:54 55.20444 -8.61488 33940 ft 488 kts 285°
2026-05-07 20:55 55.22883 -8.72571 33935 ft 488 kts 285°
2026-05-07 20:55 55.25314 -8.83676 33934 ft 488 kts 285°
2026-05-07 20:56 55.27737 -8.94804 33933 ft 488 kts 285°
2026-05-07 20:56 55.30131 -9.05857 33933 ft 488 kts 285°
2026-05-07 20:57 55.32537 -9.17028 33929 ft 488 kts 285°
2026-05-07 20:57 55.34928 -9.28187 33930 ft 488 kts 285°
2026-05-07 20:58 55.37307 -9.39354 33931 ft 488 kts 285°
2026-05-07 20:58 55.39679 -9.50547 33929 ft 488 kts 285°
2026-05-07 20:59 55.42036 -9.61736 33928 ft 487 kts 285°
2026-05-07 20:59 55.44365 -9.72847 33932 ft 487 kts 285°
2026-05-07 21:00 55.46698 -9.84039 33930 ft 486 kts 285°
2026-05-07 21:00 55.49050 -9.95208 33917 ft 487 kts 288°
2026-05-07 21:01 55.52197 -10.05878 33918 ft 495 kts 298°
2026-05-07 21:01 55.56118 -10.15901 33929 ft 496 kts 300°
2026-05-07 21:02 55.60082 -10.25888 33925 ft 496 kts 300°
2026-05-07 21:02 55.63989 -10.35866 33925 ft 496 kts 299°
2026-05-07 21:03 55.67876 -10.45907 33925 ft 497 kts 299°
2026-05-07 21:03 55.71775 -10.56042 33923 ft 497 kts 299°
2026-05-07 21:04 55.75668 -10.66203 33922 ft 498 kts 299°
2026-05-07 21:04 55.79554 -10.76383 33919 ft 498 kts 298°
2026-05-07 21:05 55.83422 -10.86555 33915 ft 498 kts 298°
2026-05-07 21:05 55.87303 -10.96804 33922 ft 498 kts 298°
2026-05-07 21:06 55.91175 -11.07073 33919 ft 498 kts 298°
2026-05-07 21:06 55.95007 -11.17278 33919 ft 498 kts 298°
2026-05-07 21:07 55.98857 -11.27572 33915 ft 497 kts 298°
2026-05-07 21:07 56.02684 -11.37850 33902 ft 496 kts 298°
2026-05-07 21:08 56.06503 -11.48151 33905 ft 495 kts 298°
2026-05-07 21:08 56.10276 -11.58369 33905 ft 494 kts 298°
2026-05-07 21:09 56.14067 -11.68681 33903 ft 493 kts 299°
2026-05-07 21:09 56.17818 -11.78927 33906 ft 493 kts 299°
2026-05-07 21:10 56.21577 -11.89239 33901 ft 492 kts 299°
2026-05-07 21:10 56.25299 -11.99490 33905 ft 492 kts 299°
2026-05-07 21:11 56.29039 -12.09837 33905 ft 491 kts 299°
2026-05-07 21:11 56.34601 -12.25306 33903 ft 491 kts 299°
2026-05-07 21:12 56.38313 -12.35684 33904 ft 491 kts 299°
2026-05-07 21:12 56.42014 -12.46078 33903 ft 491 kts 299°
2026-05-07 21:13 56.45701 -12.56476 33901 ft 492 kts 299°
2026-05-07 21:13 56.49366 -12.66855 33899 ft 492 kts 299°
2026-05-07 21:14 56.53048 -12.77330 33903 ft 492 kts 299°
2026-05-07 21:14 56.56700 -12.87763 33903 ft 492 kts 298°
2026-05-07 21:15 56.60359 -12.98261 33902 ft 492 kts 298°
2026-05-07 21:15 56.64018 -13.08805 33902 ft 492 kts 298°
2026-05-07 21:16 56.67669 -13.19374 33907 ft 493 kts 298°
2026-05-07 21:16 56.71293 -13.29910 33909 ft 493 kts 298°
2026-05-07 21:17 56.74933 -13.40539 33908 ft 493 kts 298°
2026-05-07 21:17 56.78561 -13.51179 33909 ft 493 kts 298°
2026-05-07 21:18 56.82157 -13.61770 33918 ft 493 kts 298°
2026-05-07 21:18 56.85762 -13.72442 33921 ft 493 kts 298°
2026-05-07 21:19 56.89340 -13.83071 33924 ft 493 kts 298°
2026-05-07 21:19 56.92844 -13.93868 33922 ft 490 kts 292°
2026-05-07 21:20 56.95092 -14.05508 33935 ft 484 kts 281°
2026-05-07 21:20 56.95940 -14.15692 33942 ft 481 kts 273°
2026-05-07 21:21 56.96509 -14.27845 33929 ft 481 kts 273°
2026-05-07 21:21 56.97091 -14.40098 33932 ft 482 kts 273°
2026-05-07 21:22 56.97700 -14.52271 33943 ft 482 kts 274°
2026-05-07 21:22 56.98311 -14.64520 33945 ft 482 kts 273°
2026-05-07 21:23 56.98908 -14.76779 33951 ft 482 kts 273°
2026-05-07 21:23 56.99494 -14.89066 33959 ft 483 kts 273°
2026-05-07 21:24 57.00616 -15.01150 33975 ft 485 kts 282°
2026-05-07 21:24 57.02786 -15.12918 33972 ft 488 kts 290°
2026-05-07 21:25 57.05408 -15.24467 33970 ft 489 kts 290°
2026-05-07 21:25 57.08012 -15.35942 33978 ft 489 kts 290°
2026-05-07 21:26 57.10602 -15.47542 33980 ft 489 kts 290°
2026-05-07 21:26 57.13153 -15.59133 33982 ft 489 kts 290°
2026-05-07 21:27 57.15694 -15.70754 33990 ft 489 kts 290°
2026-05-07 21:27 57.18207 -15.82309 33993 ft 488 kts 290°
2026-05-07 21:28 57.20725 -15.93940 34001 ft 488 kts 290°
2026-05-07 21:28 57.23233 -16.05594 34000 ft 488 kts 290°
2026-05-07 21:29 57.25729 -16.17258 34007 ft 488 kts 290°
2026-05-07 21:29 57.28211 -16.28923 34010 ft 488 kts 290°
2026-05-07 21:30 57.30683 -16.40612 34016 ft 488 kts 290°
2026-05-07 21:30 57.33145 -16.52312 34020 ft 487 kts 290°
2026-05-07 21:31 57.35580 -16.63945 34020 ft 487 kts 290°
2026-05-07 21:31 57.38018 -16.75673 34030 ft 486 kts 289°
2026-05-07 21:32 57.40439 -16.87374 34030 ft 486 kts 289°
2026-05-07 21:32 57.42851 -16.99110 34035 ft 486 kts 289°
2026-05-07 21:33 57.45235 -17.10778 34039 ft 485 kts 289°
2026-05-07 21:33 57.47622 -17.22531 34047 ft 486 kts 289°
2026-05-07 21:34 57.49998 -17.34292 34052 ft 486 kts 289°
2026-05-07 21:34 57.52350 -17.46006 34053 ft 486 kts 289°
2026-05-07 21:35 57.54707 -17.57812 34059 ft 486 kts 289°
2026-05-07 21:35 57.57054 -17.69646 34060 ft 486 kts 290°
2026-05-07 21:36 57.59376 -17.81413 34069 ft 486 kts 290°
2026-05-07 21:36 57.61705 -17.93293 34072 ft 486 kts 290°
2026-05-07 21:37 57.64016 -18.05163 34077 ft 486 kts 290°
2026-05-07 21:37 57.66308 -18.16992 34080 ft 486 kts 290°
2026-05-07 21:38 57.68601 -18.28902 34083 ft 486 kts 290°
2026-05-07 21:38 57.70881 -18.40823 34091 ft 486 kts 290°
2026-05-07 21:39 57.73135 -18.52677 34090 ft 486 kts 290°
2026-05-07 21:39 57.75393 -18.64627 34097 ft 487 kts 290°
2026-05-07 21:40 57.77639 -18.76585 34100 ft 487 kts 290°
2026-05-07 21:40 57.79876 -18.88577 34107 ft 487 kts 290°
2026-05-07 21:41 57.82110 -19.00620 34108 ft 488 kts 290°
2026-05-07 21:41 57.84315 -19.12587 34112 ft 488 kts 290°
2026-05-07 21:42 57.86523 -19.24649 34114 ft 488 kts 290°
2026-05-07 21:42 57.88726 -19.36758 34122 ft 488 kts 290°
2026-05-07 21:43 57.90898 -19.48777 34121 ft 489 kts 289°
2026-05-07 21:43 57.93078 -19.60911 34126 ft 489 kts 289°
2026-05-07 21:44 57.95247 -19.73070 34129 ft 489 kts 289°
2026-05-07 21:44 57.97389 -19.85157 34134 ft 489 kts 289°
2026-05-07 21:45 57.99542 -19.97352 34140 ft 490 kts 290°
2026-05-07 21:45 58.02208 -20.09161 34147 ft 489 kts 296°
2026-05-07 21:46 58.05156 -20.20743 34146 ft 489 kts 296°
2026-05-07 21:46 58.08094 -20.32359 34149 ft 490 kts 296°
2026-05-07 21:47 58.10987 -20.43965 34153 ft 490 kts 296°
2026-05-07 21:47 58.13879 -20.55687 34156 ft 491 kts 296°
2026-05-07 21:48 58.16764 -20.67457 34162 ft 491 kts 296°
2026-05-07 21:48 58.19619 -20.79162 34161 ft 492 kts 296°
2026-05-07 21:49 58.22482 -20.90958 34165 ft 492 kts 296°
2026-05-07 21:49 58.25340 -21.02793 34168 ft 492 kts 296°
2026-05-07 21:50 58.28168 -21.14570 34168 ft 492 kts 296°
2026-05-07 21:50 58.31008 -21.26463 34174 ft 493 kts 296°
2026-05-07 21:51 58.33836 -21.38371 34176 ft 493 kts 296°
2026-05-07 21:51 58.36631 -21.50204 34180 ft 493 kts 296°
2026-05-07 21:52 58.39433 -21.62134 34197 ft 493 kts 296°
2026-05-07 21:52 58.42229 -21.74103 34184 ft 493 kts 296°
2026-05-07 21:53 58.44992 -21.85996 34186 ft 493 kts 296°
2026-05-07 21:53 58.47760 -21.97980 34187 ft 493 kts 296°
2026-05-07 21:54 58.50520 -22.09993 34196 ft 492 kts 296°
2026-05-07 21:54 58.53250 -22.21944 34199 ft 492 kts 296°
2026-05-07 21:55 58.55986 -22.33991 34202 ft 492 kts 296°
2026-05-07 21:55 58.58710 -22.46053 34203 ft 492 kts 296°
2026-05-07 21:56 58.61422 -22.58130 34209 ft 492 kts 296°
2026-05-07 21:56 58.64099 -22.70120 34212 ft 492 kts 296°
2026-05-07 21:57 58.66785 -22.82221 34217 ft 491 kts 296°
2026-05-07 21:57 58.69459 -22.94335 34219 ft 491 kts 296°
2026-05-07 21:58 58.72103 -23.06382 34219 ft 491 kts 296°
2026-05-07 21:58 58.74755 -23.18535 34224 ft 491 kts 295°
2026-05-07 21:59 58.77374 -23.30608 34228 ft 491 kts 295°
2026-05-07 21:59 58.79995 -23.42764 34230 ft 490 kts 295°
2026-05-07 22:00 58.82607 -23.54946 34233 ft 490 kts 295°
2026-05-07 22:00 58.85203 -23.67129 34235 ft 490 kts 295°
2026-05-07 22:01 58.87770 -23.79244 34241 ft 490 kts 295°
2026-05-07 22:01 58.90342 -23.91455 34243 ft 490 kts 295°
2026-05-07 22:02 58.92902 -24.03687 34245 ft 489 kts 295°
2026-05-07 22:02 58.95433 -24.15849 34247 ft 489 kts 295°
2026-05-07 22:03 58.97969 -24.28105 34246 ft 489 kts 295°
2026-05-07 22:03 59.00488 -24.40360 34251 ft 489 kts 295°
2026-05-07 22:04 59.02984 -24.52570 34260 ft 488 kts 295°
2026-05-07 22:04 59.05478 -24.64846 34262 ft 488 kts 295°
2026-05-07 22:05 59.07958 -24.77134 34258 ft 488 kts 295°
2026-05-07 22:05 59.10414 -24.89372 34268 ft 487 kts 295°
2026-05-07 22:06 59.12874 -25.01706 34266 ft 487 kts 295°
2026-05-07 22:06 59.14905 -25.11945 34273 ft 487 kts 295°
2026-05-07 22:07 59.17732 -25.26291 34269 ft 487 kts 295°
2026-05-07 22:07 59.19743 -25.36558 34270 ft 487 kts 295°
2026-05-07 22:08 59.22152 -25.48934 34276 ft 487 kts 295°
2026-05-07 22:08 59.24553 -25.61339 34287 ft 487 kts 295°
2026-05-07 22:09 59.26921 -25.73651 34282 ft 487 kts 295°
2026-05-07 22:09 59.29296 -25.86081 34292 ft 487 kts 295°
2026-05-07 22:10 59.31662 -25.98545 34290 ft 487 kts 295°
2026-05-07 22:10 59.33997 -26.10921 34293 ft 487 kts 295°
2026-05-07 22:11 59.36336 -26.23401 34297 ft 487 kts 295°
2026-05-07 22:11 59.38656 -26.35862 34298 ft 486 kts 294°
2026-05-07 22:12 59.40951 -26.48264 34300 ft 486 kts 294°
2026-05-07 22:12 59.43261 -26.60831 34310 ft 486 kts 294°
2026-05-07 22:13 59.45528 -26.73248 34308 ft 485 kts 294°
2026-05-07 22:13 59.47796 -26.85749 34316 ft 485 kts 294°
2026-05-07 22:14 59.50050 -26.98257 34307 ft 484 kts 295°
2026-05-07 22:14 59.52290 -27.10769 34313 ft 484 kts 295°
2026-05-07 22:15 59.54514 -27.23274 34322 ft 483 kts 295°
2026-05-07 22:15 59.56724 -27.35788 34320 ft 483 kts 295°
2026-05-07 22:16 59.58922 -27.48310 34325 ft 483 kts 295°
2026-05-07 22:16 59.61096 -27.60788 34340 ft 483 kts 295°
2026-05-07 22:17 59.63265 -27.73316 34336 ft 482 kts 295°
2026-05-07 22:17 59.65423 -27.85870 34335 ft 482 kts 295°
2026-05-07 22:18 59.68636 -28.04716 34337 ft 481 kts 295°
2026-05-07 22:19 59.70757 -28.17271 34339 ft 481 kts 295°
2026-05-07 22:19 59.72864 -28.29827 34342 ft 480 kts 295°
2026-05-07 22:20 59.74960 -28.42402 34346 ft 480 kts 295°
2026-05-07 22:20 59.77039 -28.54964 34355 ft 479 kts 295°
2026-05-07 22:21 59.79090 -28.67446 34353 ft 479 kts 295°
2026-05-07 22:21 59.81143 -28.80022 34358 ft 478 kts 295°
2026-05-07 22:22 59.83178 -28.92585 34361 ft 477 kts 295°
2026-05-07 22:22 59.85199 -29.05142 34362 ft 476 kts 295°
2026-05-07 22:23 59.87206 -29.17708 34355 ft 476 kts 295°
2026-05-07 22:23 59.89196 -29.30254 34364 ft 475 kts 295°
2026-05-07 22:24 59.91172 -29.42802 34383 ft 474 kts 296°
2026-05-07 22:24 59.93120 -29.55265 34373 ft 473 kts 296°
2026-05-07 22:25 59.95065 -29.67793 34366 ft 472 kts 296°
2026-05-07 22:25 59.96996 -29.80326 34371 ft 472 kts 296°
2026-05-07 22:26 59.98914 -29.92850 34370 ft 471 kts 296°
2026-05-07 22:26 60.00798 -30.05388 34376 ft 471 kts 295°
2026-05-07 22:27 60.02569 -30.18002 34369 ft 471 kts 295°
2026-05-07 22:27 60.04296 -30.30567 34378 ft 471 kts 295°
2026-05-07 22:28 60.06032 -30.43203 34390 ft 471 kts 295°
2026-05-07 22:28 60.07767 -30.55863 34387 ft 471 kts 295°
2026-05-07 22:29 60.09493 -30.68530 34386 ft 472 kts 295°
2026-05-07 22:29 60.11210 -30.81238 34390 ft 472 kts 294°
2026-05-07 22:30 60.12915 -30.93963 34392 ft 473 kts 294°
2026-05-07 22:30 60.14611 -31.06734 34395 ft 474 kts 294°
2026-05-07 22:31 60.16295 -31.19526 34395 ft 474 kts 294°
2026-05-07 22:31 60.17973 -31.32362 34431 ft 477 kts 294°
2026-05-07 22:32 60.19649 -31.45294 34668 ft 478 kts 293°
2026-05-07 22:32 60.20471 -31.51686 34820 ft 478 kts 293°
2026-05-07 22:32 60.21310 -31.58244 34951 ft 479 kts 292°
2026-05-07 22:32 60.22127 -31.64651 35077 ft 479 kts 292°
2026-05-07 22:33 60.22953 -31.71156 35211 ft 479 kts 292°
2026-05-07 22:33 60.23774 -31.77646 35344 ft 480 kts 292°
2026-05-07 22:33 60.24595 -31.84160 35477 ft 480 kts 292°
2026-05-07 22:33 60.25412 -31.90678 35608 ft 480 kts 291°
2026-05-07 22:34 60.26226 -31.97202 35741 ft 480 kts 291°
2026-05-07 22:34 60.27039 -32.03747 35859 ft 480 kts 291°
2026-05-07 22:34 60.27846 -32.10269 35981 ft 481 kts 291°
2026-05-07 22:34 60.28652 -32.16813 36109 ft 481 kts 291°
2026-05-07 22:35 60.29454 -32.23351 36236 ft 481 kts 291°
2026-05-07 22:35 60.31047 -32.36432 36362 ft 480 kts 290°
2026-05-07 22:36 60.32629 -32.49540 36403 ft 481 kts 290°
2026-05-07 22:36 60.34186 -32.62561 36409 ft 481 kts 290°
2026-05-07 22:37 60.35744 -32.75704 36416 ft 481 kts 290°
2026-05-07 22:37 60.37301 -32.88965 36403 ft 481 kts 289°
2026-05-07 22:38 60.38822 -33.02046 36407 ft 482 kts 289°
2026-05-07 22:38 60.40343 -33.15249 36406 ft 482 kts 289°
2026-05-07 22:39 60.41848 -33.28447 36402 ft 481 kts 289°
2026-05-07 22:39 60.43341 -33.41654 36406 ft 481 kts 288°
2026-05-07 22:40 60.44822 -33.54886 36404 ft 481 kts 288°
2026-05-07 22:40 60.46288 -33.68112 36408 ft 481 kts 288°
2026-05-07 22:41 60.47740 -33.81348 36410 ft 481 kts 288°
2026-05-07 22:41 60.49170 -33.94506 36407 ft 481 kts 288°
2026-05-07 22:42 60.50598 -34.07783 36406 ft 481 kts 287°
2026-05-07 22:42 60.52011 -34.21048 36413 ft 481 kts 287°
2026-05-07 22:43 60.53411 -34.34326 36645 ft 481 kts 286°
2026-05-07 22:43 60.54108 -34.40987 36537 ft 482 kts 286°
2026-05-07 22:43 60.54800 -34.47640 36469 ft 480 kts 286°
2026-05-07 22:44 60.56164 -34.60870 36413 ft 476 kts 286°
2026-05-07 22:44 60.57506 -34.74015 36395 ft 473 kts 286°
2026-05-07 22:45 60.58832 -34.87129 36402 ft 473 kts 285°
2026-05-07 22:45 60.60138 -35.00163 36399 ft 474 kts 285°
2026-05-07 22:46 60.61442 -35.13328 36403 ft 475 kts 285°
2026-05-07 22:46 60.62737 -35.26555 36392 ft 477 kts 285°
2026-05-07 22:47 60.64020 -35.39803 36401 ft 478 kts 285°
2026-05-07 22:47 60.65295 -35.53116 36389 ft 478 kts 285°
2026-05-07 22:48 60.66558 -35.66456 36394 ft 479 kts 285°
2026-05-07 22:48 60.67808 -35.79801 36385 ft 479 kts 285°
2026-05-07 22:49 60.69046 -35.93174 36390 ft 479 kts 284°
2026-05-07 22:49 60.70268 -36.06531 36382 ft 479 kts 284°
2026-05-07 22:50 60.71479 -36.19922 36380 ft 478 kts 284°
2026-05-07 22:50 60.72667 -36.33216 36379 ft 478 kts 284°
2026-05-07 22:51 60.73846 -36.46559 36379 ft 477 kts 284°
2026-05-07 22:51 60.74431 -36.53242 36083 ft 477 kts 283°
2026-05-07 22:51 60.75012 -36.59908 36214 ft 476 kts 283°
2026-05-07 22:52 60.76166 -36.73288 36337 ft 478 kts 283°
2026-05-07 22:52 60.77312 -36.86744 36369 ft 482 kts 282°
2026-05-07 22:53 60.78453 -37.00304 36372 ft 485 kts 282°
2026-05-07 22:53 60.79585 -37.13941 36373 ft 487 kts 282°
2026-05-07 22:54 60.80701 -37.27565 36367 ft 488 kts 282°
2026-05-07 22:54 60.81813 -37.41314 36365 ft 488 kts 281°
2026-05-07 22:55 60.82906 -37.55023 36362 ft 487 kts 281°
2026-05-07 22:55 60.83983 -37.68706 36354 ft 486 kts 281°
2026-05-07 22:56 60.85045 -37.82378 36356 ft 484 kts 281°
2026-05-07 22:56 60.85913 -37.93703 36356 ft 483 kts 281°
2026-05-07 22:57 60.86944 -38.07320 36356 ft 482 kts 281°
2026-05-07 22:57 60.87960 -38.20917 36353 ft 481 kts 281°
2026-05-07 22:58 60.88959 -38.34491 36352 ft 480 kts 280°
2026-05-07 22:58 60.89942 -38.48046 36353 ft 480 kts 280°
2026-05-07 22:59 60.90911 -38.61596 36352 ft 479 kts 280°
2026-05-07 22:59 60.91861 -38.75071 36345 ft 479 kts 280°
2026-05-07 23:00 60.92809 -38.88723 36345 ft 479 kts 280°
2026-05-07 23:00 60.93730 -39.02199 36344 ft 479 kts 280°
2026-05-07 23:01 60.94643 -39.15754 36342 ft 478 kts 280°
2026-05-07 23:01 60.95542 -39.29319 36336 ft 478 kts 279°
2026-05-07 23:02 60.96428 -39.42902 36330 ft 478 kts 279°
2026-05-07 23:02 60.97301 -39.56491 36337 ft 478 kts 279°
2026-05-07 23:03 60.98159 -39.70075 36329 ft 478 kts 279°
2026-05-07 23:03 60.99006 -39.83680 36329 ft 478 kts 279°
2026-05-07 23:04 60.99849 -39.97195 36316 ft 478 kts 281°
2026-05-07 23:04 61.01378 -40.10470 36325 ft 476 kts 288°
2026-05-07 23:05 61.03245 -40.23563 36322 ft 476 kts 288°
2026-05-07 23:05 61.05098 -40.36697 36319 ft 476 kts 287°
2026-05-07 23:06 61.06916 -40.49866 36329 ft 477 kts 287°
2026-05-07 23:06 61.08712 -40.63064 36313 ft 477 kts 287°
2026-05-07 23:07 61.10492 -40.76274 36313 ft 477 kts 286°
2026-05-07 23:07 61.12264 -40.89524 36303 ft 477 kts 286°
2026-05-07 23:08 61.14021 -41.02772 36311 ft 477 kts 286°
2026-05-07 23:08 61.15766 -41.16037 36306 ft 477 kts 286°
2026-05-07 23:09 61.17498 -41.29320 36308 ft 477 kts 285°
2026-05-07 23:09 61.19213 -41.42589 36296 ft 476 kts 285°
2026-05-07 23:10 61.20913 -41.55857 36298 ft 476 kts 285°
2026-05-07 23:10 61.22601 -41.69139 36296 ft 475 kts 285°
2026-05-07 23:11 61.24270 -41.82396 36292 ft 475 kts 285°
2026-05-07 23:11 61.25925 -41.95652 36292 ft 474 kts 284°
2026-05-07 23:12 61.27555 -42.08830 36274 ft 473 kts 284°
2026-05-07 23:12 61.29180 -42.22076 36281 ft 472 kts 284°
2026-05-07 23:13 61.30789 -42.35318 36278 ft 472 kts 284°
2026-05-07 23:13 61.32385 -42.48576 36284 ft 471 kts 284°
2026-05-07 23:14 61.33965 -42.61814 36266 ft 471 kts 284°
2026-05-07 23:14 61.35532 -42.75065 36276 ft 470 kts 283°
2026-05-07 23:15 61.37085 -42.88320 36274 ft 470 kts 283°
2026-05-07 23:15 61.38622 -43.01564 36266 ft 470 kts 283°
2026-05-07 23:16 61.40147 -43.14827 36268 ft 470 kts 283°
2026-05-07 23:16 61.41660 -43.28116 36247 ft 470 kts 283°
2026-05-07 23:17 61.43150 -43.41318 36243 ft 470 kts 283°
2026-05-07 23:17 61.44639 -43.54645 36227 ft 470 kts 283°
2026-05-07 23:18 61.46112 -43.67962 36227 ft 470 kts 282°
2026-05-07 23:18 61.47573 -43.81296 36214 ft 470 kts 282°
2026-05-07 23:19 61.49021 -43.94647 36201 ft 471 kts 282°
2026-05-07 23:19 61.50459 -44.08027 36201 ft 471 kts 282°
2026-05-07 23:20 61.51880 -44.21394 36213 ft 471 kts 282°
2026-05-07 23:20 61.53284 -44.34731 36192 ft 471 kts 282°
2026-05-07 23:21 61.54681 -44.48141 36205 ft 471 kts 282°
2026-05-07 23:21 61.56065 -44.61565 36209 ft 470 kts 282°
2026-05-07 23:22 61.57434 -44.74978 36205 ft 470 kts 282°
2026-05-07 23:22 61.58790 -44.88407 36218 ft 470 kts 281°
2026-05-07 23:23 61.60132 -45.01843 36206 ft 469 kts 281°
2026-05-07 23:23 61.61460 -45.15274 36215 ft 469 kts 281°
2026-05-07 23:24 61.62772 -45.28694 36212 ft 468 kts 281°
2026-05-07 23:24 61.64069 -45.42107 36215 ft 468 kts 281°
2026-05-07 23:25 61.65353 -45.55532 36216 ft 467 kts 281°
2026-05-07 23:25 61.66612 -45.68836 36224 ft 467 kts 281°
2026-05-07 23:26 61.67864 -45.82225 36225 ft 466 kts 280°
2026-05-07 23:26 61.69105 -45.95635 36227 ft 465 kts 280°
2026-05-07 23:27 61.70936 -46.15721 36225 ft 464 kts 280°
2026-05-07 23:27 61.72139 -46.29103 36222 ft 464 kts 279°
2026-05-07 23:28 61.73326 -46.42464 36222 ft 463 kts 279°
2026-05-07 23:28 61.74492 -46.55745 36214 ft 463 kts 279°
2026-05-07 23:29 61.75651 -46.69100 36214 ft 462 kts 279°
2026-05-07 23:29 61.76796 -46.82452 36213 ft 462 kts 279°
2026-05-07 23:30 61.77928 -46.95823 36205 ft 462 kts 278°
2026-05-07 23:30 61.79047 -47.09197 36202 ft 462 kts 278°
2026-05-07 23:31 61.80152 -47.22569 36192 ft 462 kts 278°
2026-05-07 23:31 61.81244 -47.35957 36184 ft 462 kts 278°
2026-05-07 23:32 61.82318 -47.49279 36173 ft 462 kts 278°
2026-05-07 23:32 61.83386 -47.62706 36167 ft 462 kts 277°
2026-05-07 23:33 61.84440 -47.76129 36164 ft 462 kts 277°
2026-05-07 23:33 61.85482 -47.89585 36160 ft 463 kts 277°
2026-05-07 23:34 61.86512 -48.03053 36161 ft 463 kts 277°
2026-05-07 23:34 61.87528 -48.16520 36151 ft 463 kts 277°
2026-05-07 23:35 61.88531 -48.29998 36155 ft 463 kts 276°
2026-05-07 23:35 61.89521 -48.43494 36153 ft 463 kts 276°
2026-05-07 23:36 61.90497 -48.56991 36149 ft 463 kts 276°
2026-05-07 23:36 61.91461 -48.70497 36150 ft 463 kts 276°
2026-05-07 23:37 61.92411 -48.84015 36148 ft 463 kts 276°
2026-05-07 23:37 61.93348 -48.97528 36141 ft 463 kts 276°
2026-05-07 23:38 61.94266 -49.10995 36141 ft 463 kts 275°
2026-05-07 23:38 61.95177 -49.24535 36140 ft 463 kts 275°
2026-05-07 23:39 61.96075 -49.38096 36135 ft 463 kts 275°
2026-05-07 23:39 61.96959 -49.51651 36136 ft 463 kts 275°
2026-05-07 23:40 61.97830 -49.65216 36136 ft 463 kts 275°
2026-05-07 23:40 61.98691 -49.78822 36137 ft 463 kts 275°
2026-05-07 23:41 61.99463 -49.92431 36129 ft 462 kts 270°
2026-05-07 23:41 61.99367 -50.03736 36139 ft 459 kts 263°
2026-05-07 23:42 61.98399 -50.17109 36140 ft 457 kts 257°
2026-05-07 23:42 61.97067 -50.30328 36130 ft 458 kts 256°
2026-05-07 23:43 61.95717 -50.43550 36124 ft 458 kts 256°
2026-05-07 23:43 61.94375 -50.56797 36126 ft 458 kts 256°
2026-05-07 23:44 61.93040 -50.69952 36116 ft 458 kts 256°
2026-05-07 23:44 61.91686 -50.83195 36117 ft 459 kts 256°
2026-05-07 23:45 61.90322 -50.96400 36116 ft 459 kts 256°
2026-05-07 23:45 61.88942 -51.09622 36110 ft 459 kts 255°
2026-05-07 23:46 61.87549 -51.22818 36108 ft 459 kts 255°
2026-05-07 23:46 61.86145 -51.35999 36094 ft 459 kts 255°
2026-05-07 23:47 61.84727 -51.49180 36098 ft 458 kts 255°
2026-05-07 23:47 61.83298 -51.62329 36092 ft 458 kts 255°
2026-05-07 23:48 61.81856 -51.75471 36095 ft 458 kts 255°
2026-05-07 23:48 61.80411 -51.88517 36088 ft 458 kts 254°
2026-05-07 23:49 61.78944 -52.01638 36082 ft 459 kts 254°
2026-05-07 23:49 61.77463 -52.14758 36079 ft 459 kts 254°
2026-05-07 23:50 61.75972 -52.27835 36081 ft 459 kts 254°
2026-05-07 23:50 61.74467 -52.40927 36073 ft 459 kts 253°
2026-05-07 23:51 61.72949 -52.54004 36069 ft 459 kts 253°
2026-05-07 23:51 61.71416 -52.67086 36065 ft 459 kts 253°
2026-05-07 23:52 61.69881 -52.80074 36060 ft 459 kts 253°
2026-05-07 23:52 61.68324 -52.93127 36055 ft 460 kts 253°
2026-05-07 23:53 61.66754 -53.06173 36050 ft 460 kts 253°
2026-05-07 23:53 61.65168 -53.19229 36050 ft 460 kts 252°
2026-05-07 23:54 61.63571 -53.32268 36041 ft 460 kts 252°
2026-05-07 23:54 61.61957 -53.45330 36040 ft 461 kts 252°
2026-05-07 23:55 61.60332 -53.58359 36041 ft 461 kts 252°
2026-05-07 23:55 61.58704 -53.71311 36035 ft 461 kts 252°
2026-05-07 23:56 61.57052 -53.84332 36031 ft 462 kts 251°
2026-05-07 23:56 61.55384 -53.97376 36025 ft 462 kts 251°
2026-05-07 23:57 61.53704 -54.10392 36018 ft 462 kts 251°
2026-05-07 23:57 61.52013 -54.23396 36012 ft 463 kts 251°
2026-05-07 23:58 61.50305 -54.36409 36018 ft 463 kts 251°
2026-05-07 23:58 61.48586 -54.49402 36007 ft 463 kts 251°
2026-05-07 23:59 61.46865 -54.62306 35999 ft 464 kts 250°
2026-05-07 23:59 61.45117 -54.75307 36000 ft 464 kts 250°
2026-05-08 00:00 61.43354 -54.88304 35993 ft 465 kts 250°
2026-05-08 00:00 61.41580 -55.01285 35993 ft 465 kts 250°
2026-05-08 00:01 61.39791 -55.14264 35988 ft 466 kts 250°
2026-05-08 00:01 61.37989 -55.27241 35988 ft 466 kts 250°
2026-05-08 00:02 61.36170 -55.40228 35981 ft 466 kts 249°
2026-05-08 00:02 61.34340 -55.53197 35979 ft 467 kts 249°
2026-05-08 00:03 61.32504 -55.66102 35970 ft 467 kts 249°
2026-05-08 00:03 61.30647 -55.79056 35968 ft 467 kts 249°
2026-05-08 00:04 61.28774 -55.92015 35960 ft 467 kts 249°
2026-05-08 00:04 61.26890 -56.04954 35955 ft 468 kts 249°
2026-05-08 00:05 61.24992 -56.17884 35953 ft 468 kts 249°
2026-05-08 00:05 61.23080 -56.30817 35950 ft 468 kts 248°
2026-05-08 00:06 61.21153 -56.43744 35948 ft 469 kts 248°
2026-05-08 00:06 61.19215 -56.56653 35940 ft 469 kts 248°
2026-05-08 00:07 61.17263 -56.69553 35933 ft 469 kts 248°
2026-05-08 00:07 61.15295 -56.82463 35929 ft 470 kts 248°
2026-05-08 00:08 61.13316 -56.95352 35926 ft 470 kts 248°
2026-05-08 00:08 61.11323 -57.08238 35922 ft 471 kts 248°
2026-05-08 00:09 61.09326 -57.21048 35914 ft 471 kts 248°
2026-05-08 00:09 61.07304 -57.33924 35911 ft 471 kts 247°
2026-05-08 00:10 61.05268 -57.46798 35907 ft 472 kts 247°
2026-05-08 00:10 61.03214 -57.59693 35903 ft 472 kts 247°
2026-05-08 00:11 61.01151 -57.72555 35899 ft 473 kts 247°
2026-05-08 00:11 60.99077 -57.85411 35895 ft 473 kts 247°
2026-05-08 00:12 60.96821 -57.98114 35891 ft 469 kts 241°
2026-05-08 00:12 60.93699 -58.09724 35889 ft 465 kts 233°
2026-05-08 00:13 60.90132 -58.20803 35885 ft 465 kts 233°
2026-05-08 00:13 60.86563 -58.31884 35884 ft 465 kts 233°
2026-05-08 00:14 60.82999 -58.42976 35864 ft 466 kts 233°
2026-05-08 00:14 60.79429 -58.54062 35866 ft 466 kts 233°
2026-05-08 00:15 60.75844 -58.65151 35869 ft 467 kts 233°
2026-05-08 00:15 60.72249 -58.76214 35860 ft 467 kts 232°
2026-05-08 00:16 60.68637 -58.87274 35861 ft 468 kts 232°
2026-05-08 00:16 60.65016 -58.98308 35856 ft 468 kts 232°
2026-05-08 00:17 60.61382 -59.09329 35848 ft 469 kts 232°
2026-05-08 00:17 60.57736 -59.20336 35848 ft 469 kts 232°
2026-05-08 00:18 60.54079 -59.31322 35842 ft 469 kts 232°
2026-05-08 00:18 60.50412 -59.42289 35838 ft 470 kts 232°
2026-05-08 00:19 60.46727 -59.53254 35835 ft 470 kts 232°
2026-05-08 00:19 60.43055 -59.64132 35836 ft 471 kts 232°
2026-05-08 00:20 60.39348 -59.75060 35830 ft 471 kts 232°
2026-05-08 00:20 60.35631 -59.85968 35824 ft 471 kts 232°
2026-05-08 00:21 60.31898 -59.96874 35821 ft 472 kts 231°
2026-05-08 00:21 60.28155 -60.07754 35807 ft 472 kts 231°
2026-05-08 00:22 60.24402 -60.18615 35811 ft 473 kts 231°
2026-05-08 00:22 60.20628 -60.29487 35811 ft 473 kts 231°
2026-05-08 00:23 60.16854 -60.40307 35808 ft 473 kts 231°
2026-05-08 00:23 60.13060 -60.51132 35803 ft 474 kts 231°
2026-05-08 00:24 60.09258 -60.61933 35803 ft 474 kts 231°
2026-05-08 00:24 60.05438 -60.72733 35799 ft 475 kts 231°
2026-05-08 00:25 60.01632 -60.83447 35800 ft 475 kts 231°
2026-05-08 00:25 59.97787 -60.94219 35794 ft 476 kts 231°
2026-05-08 00:26 59.93934 -61.04966 35790 ft 476 kts 231°
2026-05-08 00:26 59.90070 -61.15691 35792 ft 477 kts 230°
2026-05-08 00:27 59.86193 -61.26407 35787 ft 477 kts 230°
2026-05-08 00:27 59.82297 -61.37128 35786 ft 477 kts 230°
2026-05-08 00:28 59.78416 -61.47764 35782 ft 478 kts 230°
2026-05-08 00:28 59.74658 -61.58667 35783 ft 481 kts 237°
2026-05-08 00:29 59.71752 -61.70683 35786 ft 487 kts 245°
2026-05-08 00:29 59.69598 -61.83452 35784 ft 489 kts 248°
2026-05-08 00:30 59.67506 -61.96274 35778 ft 490 kts 248°
2026-05-08 00:30 59.65738 -62.06929 35777 ft 490 kts 247°
2026-05-08 00:31 59.63581 -62.19709 35781 ft 490 kts 247°
2026-05-08 00:31 59.61402 -62.32476 35775 ft 491 kts 247°
2026-05-08 00:32 59.59209 -62.45233 35782 ft 491 kts 247°
2026-05-08 00:32 59.57003 -62.57991 35776 ft 491 kts 247°
2026-05-08 00:33 59.54783 -62.70737 35777 ft 491 kts 246°
2026-05-08 00:33 59.52552 -62.83467 35781 ft 491 kts 246°
2026-05-08 00:34 59.50311 -62.96159 35765 ft 491 kts 246°
2026-05-08 00:34 59.48070 -63.08771 35768 ft 491 kts 246°
2026-05-08 00:35 59.45802 -63.21449 35771 ft 491 kts 246°
2026-05-08 00:35 59.43524 -63.34095 35773 ft 491 kts 246°
2026-05-08 00:36 59.41228 -63.46758 35772 ft 491 kts 246°
2026-05-08 00:36 59.38924 -63.59379 35774 ft 491 kts 246°
2026-05-08 00:37 59.36607 -63.71987 35770 ft 491 kts 246°
2026-05-08 00:38 59.33107 -63.90882 35762 ft 492 kts 246°
2026-05-08 00:38 59.30762 -64.03445 35770 ft 491 kts 246°
2026-05-08 00:39 59.28412 -64.15921 35763 ft 491 kts 244°
2026-05-08 00:39 59.25341 -64.27726 35766 ft 485 kts 234°
2026-05-08 00:40 59.21367 -64.38311 35761 ft 482 kts 228°
2026-05-08 00:40 59.17144 -64.48482 35759 ft 483 kts 227°
2026-05-08 00:41 59.12916 -64.58667 35747 ft 483 kts 228°
2026-05-08 00:41 59.08699 -64.68864 35745 ft 484 kts 228°
2026-05-08 00:42 59.04475 -64.79065 35746 ft 484 kts 228°
2026-05-08 00:42 59.00270 -64.89179 35741 ft 484 kts 227°
2026-05-08 00:43 58.96027 -64.99336 35743 ft 485 kts 227°
2026-05-08 00:43 58.91770 -65.09479 35747 ft 485 kts 227°
2026-05-08 00:44 58.87511 -65.19584 35744 ft 485 kts 227°
2026-05-08 00:44 58.83236 -65.29683 35732 ft 486 kts 227°
2026-05-08 00:45 58.78953 -65.39756 35731 ft 486 kts 227°
2026-05-08 00:45 58.74655 -65.49824 35732 ft 486 kts 227°
2026-05-08 00:46 58.70344 -65.59876 35736 ft 486 kts 227°
2026-05-08 00:46 58.66030 -65.69893 35742 ft 487 kts 227°
2026-05-08 00:47 58.61702 -65.79902 35737 ft 487 kts 227°
2026-05-08 00:47 58.57362 -65.89893 35736 ft 488 kts 227°
2026-05-08 00:48 58.53039 -65.99804 35739 ft 488 kts 227°
2026-05-08 00:48 58.48683 -66.09750 35740 ft 488 kts 227°
2026-05-08 00:49 58.44308 -66.19694 35737 ft 489 kts 227°
2026-05-08 00:49 58.39923 -66.29620 35741 ft 489 kts 227°
2026-05-08 00:50 58.35536 -66.39510 35737 ft 489 kts 226°
2026-05-08 00:50 58.31135 -66.49389 35742 ft 489 kts 226°
2026-05-08 00:51 58.26715 -66.59267 35744 ft 490 kts 226°
2026-05-08 00:51 58.22294 -66.69110 35743 ft 490 kts 226°
2026-05-08 00:52 58.17868 -66.78919 35746 ft 490 kts 226°
2026-05-08 00:52 58.13450 -66.88675 35748 ft 490 kts 226°
2026-05-08 00:53 58.08997 -66.98470 35745 ft 491 kts 226°
2026-05-08 00:53 58.04445 -67.08069 35760 ft 490 kts 224°
2026-05-08 00:54 57.99756 -67.17405 35756 ft 490 kts 223°
2026-05-08 00:54 57.95050 -67.26725 35754 ft 490 kts 224°
2026-05-08 00:55 57.90366 -67.36049 35754 ft 491 kts 224°
2026-05-08 00:55 57.85679 -67.45384 35761 ft 491 kts 224°
2026-05-08 00:56 57.80983 -67.54708 35763 ft 491 kts 224°
2026-05-08 00:56 57.76275 -67.64014 35758 ft 492 kts 224°
2026-05-08 00:57 57.71556 -67.73304 35764 ft 492 kts 223°
2026-05-08 00:57 57.66829 -67.82569 35754 ft 492 kts 223°
2026-05-08 00:58 57.62129 -67.91743 35773 ft 492 kts 223°
2026-05-08 00:58 57.57384 -68.00970 35785 ft 492 kts 223°
2026-05-08 00:59 57.52627 -68.10182 35765 ft 493 kts 223°
2026-05-08 00:59 57.47862 -68.19373 35773 ft 493 kts 223°
2026-05-08 01:00 57.43091 -68.28537 35782 ft 494 kts 223°
2026-05-08 01:00 57.38336 -68.37636 35778 ft 494 kts 223°
2026-05-08 01:01 57.33543 -68.46770 35778 ft 495 kts 223°
2026-05-08 01:01 57.28738 -68.55892 35770 ft 495 kts 223°
2026-05-08 01:02 57.23919 -68.65004 35777 ft 495 kts 223°
2026-05-08 01:02 57.19097 -68.74085 35777 ft 496 kts 223°
2026-05-08 01:03 57.14264 -68.83149 35772 ft 496 kts 223°
2026-05-08 01:03 57.09422 -68.92196 35772 ft 496 kts 223°
2026-05-08 01:04 57.04564 -69.01237 35769 ft 496 kts 223°
2026-05-08 01:04 56.99706 -69.10242 35777 ft 497 kts 223°
2026-05-08 01:05 56.94833 -69.19237 35774 ft 497 kts 223°
2026-05-08 01:05 56.89989 -69.28147 35770 ft 497 kts 223°
2026-05-08 01:06 56.85102 -69.37100 35777 ft 497 kts 223°
2026-05-08 01:06 56.80211 -69.46024 35776 ft 497 kts 223°
2026-05-08 01:07 56.75301 -69.54948 35775 ft 498 kts 223°
2026-05-08 01:07 56.70389 -69.63842 35767 ft 498 kts 223°
2026-05-08 01:08 56.65496 -69.72664 35767 ft 498 kts 223°
2026-05-08 01:08 56.60564 -69.81526 35770 ft 498 kts 223°
2026-05-08 01:09 56.55627 -69.90361 35767 ft 498 kts 222°
2026-05-08 01:09 56.50680 -69.99179 35773 ft 498 kts 222°
2026-05-08 01:10 56.45733 -70.07963 35754 ft 499 kts 222°
2026-05-08 01:10 56.40772 -70.16739 35760 ft 499 kts 222°
2026-05-08 01:11 56.35808 -70.25486 35771 ft 499 kts 222°
2026-05-08 01:11 56.30835 -70.34217 35765 ft 499 kts 222°
2026-05-08 01:12 56.25850 -70.42932 35769 ft 500 kts 222°
2026-05-08 01:12 56.20887 -70.51578 35766 ft 500 kts 222°
2026-05-08 01:13 56.15883 -70.60262 35773 ft 500 kts 222°
2026-05-08 01:13 56.10874 -70.68918 35770 ft 500 kts 222°
2026-05-08 01:14 56.05854 -70.77564 35774 ft 500 kts 222°
2026-05-08 01:14 56.00826 -70.86190 35770 ft 500 kts 222°
2026-05-08 01:15 55.95796 -70.94787 35773 ft 501 kts 222°
2026-05-08 01:15 55.90758 -71.03365 35776 ft 501 kts 222°
2026-05-08 01:16 55.85712 -71.11924 35779 ft 501 kts 222°
2026-05-08 01:16 55.80652 -71.20474 35773 ft 501 kts 222°
2026-05-08 01:17 55.75591 -71.28995 35779 ft 501 kts 222°
2026-05-08 01:17 55.71371 -71.36073 35776 ft 501 kts 222°
2026-05-08 01:18 55.66295 -71.44560 35771 ft 502 kts 222°
2026-05-08 01:18 55.60383 -71.54405 35778 ft 502 kts 221°
2026-05-08 01:19 55.56115 -71.61484 35776 ft 502 kts 221°
2026-05-08 01:19 55.51016 -71.69915 35782 ft 502 kts 221°
2026-05-08 01:20 55.45903 -71.78337 35782 ft 503 kts 221°
2026-05-08 01:20 55.40787 -71.86732 35780 ft 503 kts 221°
2026-05-08 01:21 55.35696 -71.95055 35779 ft 503 kts 221°
2026-05-08 01:21 55.30560 -72.03421 35780 ft 503 kts 221°
2026-05-08 01:22 55.25422 -72.11759 35776 ft 503 kts 221°
2026-05-08 01:22 55.20271 -72.20087 35777 ft 503 kts 221°
2026-05-08 01:23 55.15120 -72.28386 35777 ft 504 kts 221°
2026-05-08 01:23 55.09952 -72.36680 35777 ft 504 kts 221°
2026-05-08 01:24 55.04810 -72.44904 35776 ft 504 kts 221°
2026-05-08 01:24 54.99640 -72.53140 35774 ft 504 kts 221°
2026-05-08 01:25 54.94455 -72.61372 35774 ft 504 kts 221°
2026-05-08 01:25 54.89261 -72.69588 35772 ft 504 kts 221°
2026-05-08 01:26 54.84060 -72.77785 35774 ft 505 kts 221°
2026-05-08 01:26 54.78885 -72.85911 35772 ft 505 kts 221°
2026-05-08 01:27 54.73668 -72.94073 35772 ft 505 kts 221°
2026-05-08 01:27 54.68451 -73.02206 35771 ft 505 kts 221°
2026-05-08 01:28 54.63228 -73.10318 35777 ft 505 kts 221°
2026-05-08 01:28 54.57992 -73.18422 35774 ft 505 kts 221°
2026-05-08 01:29 54.52755 -73.26499 35779 ft 505 kts 221°
2026-05-08 01:29 54.47506 -73.34566 35778 ft 506 kts 221°
2026-05-08 01:30 54.42254 -73.42607 35777 ft 506 kts 221°
2026-05-08 01:30 54.36990 -73.50638 35781 ft 506 kts 221°
2026-05-08 01:31 54.31759 -73.58590 35782 ft 506 kts 221°
2026-05-08 01:31 54.26480 -73.66587 35785 ft 506 kts 221°
2026-05-08 01:32 54.21192 -73.74568 35788 ft 507 kts 221°
2026-05-08 01:32 54.15901 -73.82526 35791 ft 507 kts 221°
2026-05-08 01:33 54.10604 -73.90465 35793 ft 507 kts 220°
2026-05-08 01:33 54.05302 -73.98385 35796 ft 507 kts 220°
2026-05-08 01:34 53.99989 -74.06291 35796 ft 507 kts 220°
2026-05-08 01:34 53.94683 -74.14160 35799 ft 507 kts 220°
2026-05-08 01:35 53.89392 -74.21979 35803 ft 507 kts 220°
2026-05-08 01:35 53.84062 -74.29828 35808 ft 507 kts 220°
2026-05-08 01:36 53.78731 -74.37651 35811 ft 507 kts 220°
2026-05-08 01:36 53.73387 -74.45466 35811 ft 508 kts 220°
2026-05-08 01:37 53.68041 -74.53256 35809 ft 508 kts 220°
2026-05-08 01:37 53.62682 -74.61037 35811 ft 508 kts 220°
2026-05-08 01:38 53.57318 -74.68800 35810 ft 508 kts 220°
2026-05-08 01:38 53.51978 -74.76501 35810 ft 508 kts 220°
2026-05-08 01:39 53.46611 -74.84215 35810 ft 508 kts 220°
2026-05-08 01:39 53.41232 -74.91918 35809 ft 508 kts 220°
2026-05-08 01:40 53.35842 -74.99611 35808 ft 508 kts 220°
2026-05-08 01:40 53.30458 -75.07270 35805 ft 508 kts 220°
2026-05-08 01:41 53.25098 -75.14867 35805 ft 508 kts 220°
2026-05-08 01:41 53.19701 -75.22490 35800 ft 508 kts 220°
2026-05-08 01:42 53.14291 -75.30107 35805 ft 508 kts 220°
2026-05-08 01:42 53.08892 -75.37682 35800 ft 508 kts 220°
2026-05-08 01:43 53.03481 -75.45249 35805 ft 508 kts 220°
2026-05-08 01:43 52.98063 -75.52799 35804 ft 508 kts 220°
2026-05-08 01:44 52.92681 -75.60274 35807 ft 508 kts 220°
2026-05-08 01:44 52.87254 -75.67785 35805 ft 507 kts 220°
2026-05-08 01:45 52.81834 -75.75263 35800 ft 507 kts 220°
2026-05-08 01:45 52.76403 -75.82730 35806 ft 507 kts 220°
2026-05-08 01:46 52.70981 -75.90161 35803 ft 507 kts 220°
2026-05-08 01:46 52.65548 -75.97580 35799 ft 506 kts 220°
2026-05-08 01:47 52.60108 -76.04984 35805 ft 506 kts 220°
2026-05-08 01:47 52.54714 -76.12302 35807 ft 506 kts 220°
2026-05-08 01:48 52.46555 -76.23325 35804 ft 506 kts 220°
2026-05-08 01:48 52.41118 -76.30640 35804 ft 506 kts 220°
2026-05-08 01:49 52.35676 -76.37939 35793 ft 505 kts 220°
2026-05-08 01:49 52.30233 -76.45214 35804 ft 505 kts 219°
2026-05-08 01:50 52.24787 -76.52471 35801 ft 505 kts 219°
2026-05-08 01:50 52.19324 -76.59725 35803 ft 505 kts 219°
2026-05-08 01:51 52.13870 -76.66942 35804 ft 505 kts 219°
2026-05-08 01:51 52.08415 -76.74141 35799 ft 505 kts 219°
2026-05-08 01:52 52.02987 -76.81280 35799 ft 505 kts 219°
2026-05-08 01:52 51.97526 -76.88437 35802 ft 504 kts 219°
2026-05-08 01:53 51.92063 -76.95574 35802 ft 504 kts 219°
2026-05-08 01:53 51.86594 -77.02697 35801 ft 504 kts 219°
2026-05-08 01:54 51.81128 -77.09793 35804 ft 504 kts 219°
2026-05-08 01:54 51.75653 -77.16878 35801 ft 504 kts 219°
2026-05-08 01:55 51.70174 -77.23945 35800 ft 504 kts 219°
2026-05-08 01:55 51.64699 -77.30986 35799 ft 504 kts 219°
2026-05-08 01:56 51.59214 -77.38015 35804 ft 504 kts 219°
2026-05-08 01:56 51.53731 -77.45020 35800 ft 503 kts 219°
2026-05-08 01:57 51.48253 -77.51998 35803 ft 503 kts 219°
2026-05-08 01:57 51.42765 -77.58965 35803 ft 502 kts 219°
2026-05-08 01:58 51.37313 -77.65865 35803 ft 502 kts 219°
2026-05-08 01:58 51.31831 -77.72782 35803 ft 502 kts 219°
2026-05-08 01:59 51.26348 -77.79678 35801 ft 502 kts 219°
2026-05-08 01:59 51.20857 -77.86561 35805 ft 501 kts 219°
2026-05-08 02:00 51.15371 -77.93418 35802 ft 501 kts 219°
2026-05-08 02:00 51.09876 -78.00265 35799 ft 501 kts 219°
2026-05-08 02:01 51.04385 -78.07087 35800 ft 501 kts 219°
2026-05-08 02:01 50.98890 -78.13890 35795 ft 501 kts 219°
2026-05-08 02:02 50.93388 -78.20681 35797 ft 501 kts 219°
2026-05-08 02:02 50.87921 -78.27411 35794 ft 500 kts 219°
2026-05-08 02:03 50.82421 -78.34159 35798 ft 500 kts 219°
2026-05-08 02:03 50.76918 -78.40890 35794 ft 500 kts 219°
2026-05-08 02:04 50.71401 -78.47617 35794 ft 500 kts 219°
2026-05-08 02:04 50.65895 -78.54312 35793 ft 500 kts 218°
2026-05-08 02:05 50.60381 -78.60995 35798 ft 499 kts 219°
2026-05-08 02:05 50.54872 -78.67651 35798 ft 499 kts 218°
2026-05-08 02:06 50.49392 -78.74253 35801 ft 499 kts 218°
2026-05-08 02:06 50.44771 -78.79806 35799 ft 499 kts 218°
2026-05-08 02:07 50.38357 -78.87488 35804 ft 499 kts 218°
2026-05-08 02:07 50.33759 -78.92979 35806 ft 499 kts 218°
2026-05-08 02:08 50.28198 -78.99602 35810 ft 499 kts 218°
2026-05-08 02:08 50.22697 -79.06133 35813 ft 499 kts 218°
2026-05-08 02:09 50.17156 -79.12693 35807 ft 499 kts 218°
2026-05-08 02:09 50.11617 -79.19230 35805 ft 499 kts 218°
2026-05-08 02:10 50.06064 -79.25765 35810 ft 499 kts 218°
2026-05-08 02:10 50.00524 -79.32265 35807 ft 499 kts 218°
2026-05-08 02:11 49.94978 -79.38753 35805 ft 499 kts 218°
2026-05-08 02:11 49.89425 -79.45230 35819 ft 500 kts 218°
2026-05-08 02:12 49.83844 -79.51721 36074 ft 502 kts 218°
2026-05-08 02:12 49.81049 -79.54964 36289 ft 501 kts 218°
2026-05-08 02:12 49.78264 -79.58191 36439 ft 501 kts 218°
2026-05-08 02:13 49.75470 -79.61423 36590 ft 501 kts 218°
2026-05-08 02:13 49.72673 -79.64654 36737 ft 502 kts 218°
2026-05-08 02:13 49.69912 -79.67840 36891 ft 502 kts 218°
2026-05-08 02:13 49.67119 -79.71057 37049 ft 501 kts 218°
2026-05-08 02:14 49.64313 -79.74284 37195 ft 502 kts 218°
2026-05-08 02:14 49.61517 -79.77495 37332 ft 502 kts 218°
2026-05-08 02:14 49.58714 -79.80709 37479 ft 502 kts 218°
2026-05-08 02:14 49.55911 -79.83919 37622 ft 502 kts 218°
2026-05-08 02:15 49.50312 -79.90317 37761 ft 501 kts 218°
2026-05-08 02:15 49.44715 -79.96694 37808 ft 501 kts 218°
2026-05-08 02:16 49.39108 -80.03063 37815 ft 501 kts 218°
2026-05-08 02:16 49.33529 -80.09383 37816 ft 501 kts 218°
2026-05-08 02:17 49.27921 -80.15716 37817 ft 501 kts 218°
2026-05-08 02:17 49.22303 -80.22042 37814 ft 501 kts 218°
2026-05-08 02:18 49.16683 -80.28353 37818 ft 501 kts 218°
2026-05-08 02:18 49.11067 -80.34641 37823 ft 501 kts 218°
2026-05-08 02:19 49.05447 -80.40917 37823 ft 500 kts 218°
2026-05-08 02:19 48.99815 -80.47186 37830 ft 500 kts 218°
2026-05-08 02:20 48.94191 -80.53430 37835 ft 500 kts 218°
2026-05-08 02:20 48.88592 -80.59628 37834 ft 500 kts 218°
2026-05-08 02:21 48.82967 -80.65837 37839 ft 500 kts 218°
2026-05-08 02:21 48.77332 -80.72040 37839 ft 500 kts 218°
2026-05-08 02:22 48.71700 -80.78222 37836 ft 500 kts 218°
2026-05-08 02:22 48.66066 -80.84389 37845 ft 500 kts 218°
2026-05-08 02:23 48.60426 -80.90546 37841 ft 500 kts 218°
2026-05-08 02:23 48.54788 -80.96683 37841 ft 500 kts 218°
2026-05-08 02:24 48.49138 -81.02818 37836 ft 500 kts 218°
2026-05-08 02:24 48.43762 -81.09396 37843 ft 497 kts 226°
2026-05-08 02:25 48.39118 -81.17047 37848 ft 495 kts 231°
2026-05-08 02:25 48.34565 -81.24823 37843 ft 495 kts 230°
2026-05-08 02:26 48.30018 -81.32512 37853 ft 495 kts 230°
2026-05-08 02:26 48.25418 -81.40219 37860 ft 495 kts 230°
2026-05-08 02:27 48.20806 -81.47912 37874 ft 495 kts 230°
2026-05-08 02:27 48.16196 -81.55579 37873 ft 495 kts 230°
2026-05-08 02:28 48.11578 -81.63242 37875 ft 495 kts 230°
2026-05-08 02:28 48.06984 -81.70843 37870 ft 495 kts 230°
2026-05-08 02:29 48.02353 -81.78483 37871 ft 495 kts 230°
2026-05-08 02:29 47.97720 -81.86105 37872 ft 495 kts 230°
2026-05-08 02:30 47.93083 -81.93709 37872 ft 495 kts 230°
2026-05-08 02:30 47.88436 -82.01310 37880 ft 495 kts 230°
2026-05-08 02:31 47.83786 -82.08894 37875 ft 496 kts 230°
2026-05-08 02:31 47.79130 -82.16465 37880 ft 496 kts 230°
2026-05-08 02:32 47.74466 -82.24027 37880 ft 496 kts 230°
2026-05-08 02:32 47.69839 -82.31510 37883 ft 496 kts 230°
2026-05-08 02:33 47.65167 -82.39043 37886 ft 496 kts 230°
2026-05-08 02:33 47.60484 -82.46573 37884 ft 496 kts 230°
2026-05-08 02:34 47.55803 -82.54077 37890 ft 496 kts 230°
2026-05-08 02:34 47.51117 -82.61568 37892 ft 496 kts 230°
2026-05-08 02:35 47.46421 -82.69057 37892 ft 496 kts 230°
2026-05-08 02:35 47.41722 -82.76525 37900 ft 496 kts 230°
2026-05-08 02:36 47.37012 -82.83990 37901 ft 496 kts 230°
2026-05-08 02:36 47.32304 -82.91431 37901 ft 497 kts 230°
2026-05-08 02:37 47.27585 -82.98872 37900 ft 497 kts 230°
2026-05-08 02:37 47.22855 -83.06306 37899 ft 497 kts 230°
2026-05-08 02:38 47.18125 -83.13722 37916 ft 497 kts 230°
2026-05-08 02:38 47.13390 -83.21124 37911 ft 497 kts 230°
2026-05-08 02:39 47.08650 -83.28513 37918 ft 497 kts 229°
2026-05-08 02:39 47.03931 -83.35848 37911 ft 497 kts 229°
2026-05-08 02:40 46.99179 -83.43214 37912 ft 497 kts 229°
2026-05-08 02:40 46.94425 -83.50563 37914 ft 497 kts 229°
2026-05-08 02:41 46.89662 -83.57906 37910 ft 497 kts 229°
2026-05-08 02:41 46.84901 -83.65226 37914 ft 496 kts 229°
2026-05-08 02:42 46.80142 -83.72523 37914 ft 496 kts 229°
2026-05-08 02:42 46.75370 -83.79820 37912 ft 496 kts 229°
2026-05-08 02:43 46.70601 -83.87092 37911 ft 496 kts 229°
2026-05-08 02:43 46.65850 -83.94317 37909 ft 496 kts 229°
2026-05-08 02:44 46.61067 -84.01572 37911 ft 496 kts 229°
2026-05-08 02:44 46.56285 -84.08804 37910 ft 496 kts 229°
2026-05-08 02:45 46.51498 -84.16026 37904 ft 496 kts 229°
2026-05-08 02:45 46.46702 -84.23245 37902 ft 496 kts 229°
2026-05-08 02:46 46.41731 -84.30169 37896 ft 499 kts 218°
2026-05-08 02:46 46.38656 -84.32581 37902 ft 507 kts 204°
2026-05-08 02:46 46.35241 -84.33893 37936 ft 509 kts 196°
2026-05-08 02:47 46.28338 -84.36078 37939 ft 512 kts 196°
2026-05-08 02:47 46.21364 -84.38367 37927 ft 514 kts 197°
2026-05-08 02:48 46.14404 -84.40747 37922 ft 515 kts 197°
2026-05-08 02:48 46.07424 -84.43159 37923 ft 516 kts 197°
2026-05-08 02:49 46.00434 -84.45566 37923 ft 517 kts 197°
2026-05-08 02:49 45.93430 -84.47964 37923 ft 517 kts 197°
2026-05-08 02:50 45.86432 -84.50351 37920 ft 517 kts 197°
2026-05-08 02:50 45.79434 -84.52733 37920 ft 516 kts 198°
2026-05-08 02:51 45.72491 -84.55091 37921 ft 516 kts 198°
2026-05-08 02:51 45.65503 -84.57458 37923 ft 516 kts 198°
2026-05-08 02:52 45.58516 -84.59818 37925 ft 515 kts 198°
2026-05-08 02:52 45.51542 -84.62169 37936 ft 515 kts 198°
2026-05-08 02:53 45.44568 -84.64513 37933 ft 515 kts 198°
2026-05-08 02:53 45.38772 -84.66457 37927 ft 515 kts 198°
2026-05-08 02:54 45.31804 -84.68790 37928 ft 514 kts 198°
2026-05-08 02:54 45.24840 -84.71114 37936 ft 514 kts 198°
2026-05-08 02:55 45.14387 -84.74589 37934 ft 514 kts 198°
2026-05-08 02:56 45.07427 -84.76897 37922 ft 514 kts 198°
2026-05-08 02:56 45.00452 -84.79206 37920 ft 514 kts 198°
2026-05-08 02:57 44.93489 -84.81504 37921 ft 513 kts 198°
2026-05-08 02:57 44.86566 -84.83783 37932 ft 513 kts 198°
2026-05-08 02:58 44.79598 -84.86071 37909 ft 513 kts 198°
2026-05-08 02:58 44.72648 -84.88348 37910 ft 513 kts 198°
2026-05-08 02:59 44.65671 -84.90628 37914 ft 514 kts 198°
2026-05-08 02:59 44.58710 -84.92898 37930 ft 514 kts 198°
2026-05-08 03:00 44.51731 -84.95168 37929 ft 515 kts 198°
2026-05-08 03:00 44.44741 -84.97435 37941 ft 516 kts 198°
2026-05-08 03:01 44.37780 -84.99687 37944 ft 516 kts 198°
2026-05-08 03:01 44.30776 -85.01949 37954 ft 517 kts 198°
2026-05-08 03:02 44.23762 -85.04208 37949 ft 518 kts 198°
2026-05-08 03:02 44.16737 -85.06465 37950 ft 518 kts 198°
2026-05-08 03:03 44.09705 -85.08719 37952 ft 519 kts 199°
2026-05-08 03:03 44.02668 -85.10966 37951 ft 519 kts 199°
2026-05-08 03:04 43.95630 -85.13208 37949 ft 519 kts 199°
2026-05-08 03:04 43.88617 -85.15436 37953 ft 519 kts 199°
2026-05-08 03:05 43.81528 -85.17685 37945 ft 520 kts 199°
2026-05-08 03:05 43.74522 -85.19902 37955 ft 520 kts 199°
2026-05-08 03:06 43.67463 -85.22130 37962 ft 520 kts 199°
2026-05-08 03:06 43.60405 -85.24350 37949 ft 520 kts 199°
2026-05-08 03:07 43.53350 -85.26566 37947 ft 520 kts 199°
2026-05-08 03:07 43.46298 -85.28775 37943 ft 520 kts 199°
2026-05-08 03:08 43.39246 -85.30980 37942 ft 519 kts 199°
2026-05-08 03:08 43.32202 -85.33177 37949 ft 518 kts 199°
2026-05-08 03:09 43.25220 -85.35351 37946 ft 517 kts 199°
2026-05-08 03:09 43.18193 -85.37533 37945 ft 516 kts 199°
2026-05-08 03:10 43.11199 -85.39697 37943 ft 515 kts 200°
2026-05-08 03:10 43.04217 -85.41853 37946 ft 513 kts 200°
2026-05-08 03:11 42.97263 -85.43997 37947 ft 511 kts 200°
2026-05-08 03:11 42.90374 -85.46118 37944 ft 510 kts 200°
2026-05-08 03:12 42.83652 -85.48738 37946 ft 488 kts 216°
2026-05-08 03:12 42.80945 -85.51357 37948 ft 471 kts 231°
2026-05-08 03:12 42.78843 -85.54695 37961 ft 460 kts 241°
2026-05-08 03:13 42.76232 -85.62422 37959 ft 444 kts 261°
2026-05-08 03:13 42.74916 -85.70642 37963 ft 445 kts 260°
2026-05-08 03:14 42.73453 -85.78834 37963 ft 446 kts 259°
2026-05-08 03:14 42.71954 -85.87025 37960 ft 446 kts 259°
2026-05-08 03:15 42.70470 -85.95152 37956 ft 445 kts 259°
2026-05-08 03:15 42.68979 -86.03309 37959 ft 445 kts 259°
2026-05-08 03:16 42.67479 -86.11466 37960 ft 444 kts 259°
2026-05-08 03:16 42.65977 -86.19603 37963 ft 443 kts 259°
2026-05-08 03:17 42.64471 -86.27728 37958 ft 443 kts 259°
2026-05-08 03:17 42.62957 -86.35848 37953 ft 442 kts 259°
2026-05-08 03:18 42.61454 -86.43884 37953 ft 442 kts 259°
2026-05-08 03:18 42.59937 -86.51970 37957 ft 442 kts 259°
2026-05-08 03:19 42.58416 -86.60045 37956 ft 442 kts 259°
2026-05-08 03:19 42.56886 -86.68135 37954 ft 442 kts 259°
2026-05-08 03:20 42.55199 -86.76151 37949 ft 444 kts 255°
2026-05-08 03:20 42.53013 -86.84019 37963 ft 446 kts 253°
2026-05-08 03:21 42.50799 -86.91878 37948 ft 446 kts 253°
2026-05-08 03:21 42.48645 -86.99753 37944 ft 446 kts 254°
2026-05-08 03:22 42.46499 -87.07638 37948 ft 446 kts 253°
2026-05-08 03:22 42.44342 -87.15517 37952 ft 446 kts 253°
2026-05-08 03:23 42.42181 -87.23383 37950 ft 446 kts 253°
2026-05-08 03:23 42.40018 -87.31240 37949 ft 445 kts 253°
2026-05-08 03:24 42.37860 -87.39045 37951 ft 445 kts 253°
2026-05-08 03:24 42.35687 -87.46886 37943 ft 445 kts 253°
2026-05-08 03:25 42.32789 -87.54277 37948 ft 456 kts 236°
2026-05-08 03:25 42.30493 -87.57285 37934 ft 467 kts 225°
2026-05-08 03:25 42.27873 -87.59912 37938 ft 469 kts 224°
2026-05-08 03:26 42.22683 -87.65236 37941 ft 468 kts 225°
2026-05-08 03:26 42.17548 -87.70645 37937 ft 468 kts 225°
2026-05-08 03:27 42.12580 -87.76224 37930 ft 454 kts 237°
2026-05-08 03:27 42.10883 -87.79723 37945 ft 442 kts 249°
2026-05-08 03:27 42.09734 -87.83542 37951 ft 437 kts 257°
2026-05-08 03:27 42.09076 -87.87498 37928 ft 432 kts 268°
2026-05-08 03:28 42.09068 -87.91523 37957 ft 429 kts 273°
2026-05-08 03:28 42.09188 -87.99579 37946 ft 431 kts 272°
2026-05-08 03:29 42.09181 -88.07628 37947 ft 433 kts 271°
2026-05-08 03:29 42.09145 -88.15751 37939 ft 434 kts 271°
2026-05-08 03:30 42.09097 -88.27958 37928 ft 435 kts 271°
2026-05-08 03:31 42.09342 -88.44229 37934 ft 434 kts 272°
2026-05-08 03:32 42.09529 -88.56414 37941 ft 433 kts 272°
2026-05-08 03:32 42.09607 -88.64524 37939 ft 433 kts 272°
2026-05-08 03:33 42.09642 -88.72619 37938 ft 432 kts 272°
2026-05-08 03:33 42.09700 -88.80718 37944 ft 432 kts 272°
2026-05-08 03:34 42.09766 -88.88751 37939 ft 431 kts 272°
2026-05-08 03:34 42.09829 -88.96823 37937 ft 431 kts 272°
2026-05-08 03:35 42.09872 -89.04903 37949 ft 431 kts 271°
2026-05-08 03:35 42.09848 -89.12984 37930 ft 431 kts 270°
2026-05-08 03:36 42.09775 -89.21061 37931 ft 432 kts 271°
2026-05-08 03:36 42.09756 -89.29152 37945 ft 432 kts 271°
2026-05-08 03:37 42.09761 -89.37231 37942 ft 432 kts 271°
2026-05-08 03:37 42.09758 -89.45274 37961 ft 432 kts 271°
2026-05-08 03:38 42.09739 -89.53378 37958 ft 433 kts 271°
2026-05-08 03:38 42.09722 -89.61482 37950 ft 433 kts 271°
2026-05-08 03:39 42.09705 -89.69584 37950 ft 433 kts 270°
2026-05-08 03:39 42.09514 -89.77706 37954 ft 434 kts 269°
2026-05-08 03:40 42.09317 -89.85818 37930 ft 434 kts 270°
2026-05-08 03:40 42.09214 -89.93938 37941 ft 434 kts 270°
2026-05-08 03:41 42.09161 -90.00697 37930 ft 434 kts 270°
2026-05-08 03:41 42.09087 -90.08822 37929 ft 434 kts 270°
2026-05-08 03:42 42.08906 -90.16961 37928 ft 435 kts 268°
2026-05-08 03:42 42.08584 -90.25091 37943 ft 435 kts 269°
2026-05-08 03:43 42.08362 -90.33234 37949 ft 435 kts 269°
2026-05-08 03:43 42.08219 -90.41383 37943 ft 436 kts 270°
2026-05-08 03:44 42.08081 -90.49548 37942 ft 436 kts 270°
2026-05-08 03:44 42.07947 -90.57706 37940 ft 436 kts 270°
2026-05-08 03:45 42.07792 -90.65832 37935 ft 437 kts 269°
2026-05-08 03:45 42.07638 -90.74014 37935 ft 437 kts 269°
2026-05-08 03:46 42.07431 -90.82202 37939 ft 438 kts 268°
2026-05-08 03:46 42.07091 -90.90390 37932 ft 438 kts 268°
2026-05-08 03:47 42.06700 -90.98586 37933 ft 439 kts 268°
2026-05-08 03:47 42.06387 -91.06794 37926 ft 439 kts 269°
2026-05-08 03:48 42.06146 -91.15003 37929 ft 440 kts 269°
2026-05-08 03:48 42.05929 -91.23235 37929 ft 440 kts 269°
2026-05-08 03:49 42.05708 -91.31465 37926 ft 440 kts 268°
2026-05-08 03:49 42.05300 -91.39651 37927 ft 441 kts 267°
2026-05-08 03:50 42.05049 -91.47891 37920 ft 441 kts 269°
2026-05-08 03:50 42.04912 -91.56148 37921 ft 442 kts 269°
2026-05-08 03:51 42.04770 -91.63116 37923 ft 441 kts 269°
2026-05-08 03:51 42.05558 -91.71067 37912 ft 426 kts 287°
2026-05-08 03:52 42.08348 -91.78103 37922 ft 432 kts 304°
2026-05-08 03:52 42.12886 -91.83562 37945 ft 446 kts 322°
2026-05-08 03:53 42.18706 -91.86783 37952 ft 463 kts 340°
2026-05-08 03:53 42.25217 -91.87359 37946 ft 483 kts 358°
2026-05-08 03:54 42.31849 -91.85116 37955 ft 503 kts 16°
2026-05-08 03:54 42.37921 -91.80134 37958 ft 521 kts 34°
2026-05-08 03:55 42.42839 -91.72775 37956 ft 536 kts 51°
2026-05-08 03:55 42.46127 -91.63616 37947 ft 547 kts 69°
2026-05-08 03:56 42.47484 -91.53438 37937 ft 553 kts 85°
2026-05-08 03:56 42.47712 -91.43075 37949 ft 554 kts 88°
2026-05-08 03:57 42.47764 -91.32580 37930 ft 555 kts 88°
2026-05-08 03:57 42.47796 -91.22123 37938 ft 556 kts 88°
2026-05-08 03:58 42.47823 -91.11637 37936 ft 556 kts 88°
2026-05-08 03:58 42.47853 -91.01219 37949 ft 557 kts 88°
2026-05-08 03:59 42.47889 -90.90702 37942 ft 557 kts 88°
2026-05-08 03:59 42.47932 -90.80189 37935 ft 558 kts 88°
2026-05-08 04:00 42.47981 -90.69649 37941 ft 558 kts 88°
2026-05-08 04:00 42.48037 -90.59177 37931 ft 559 kts 88°
2026-05-08 04:01 42.48100 -90.48644 37941 ft 559 kts 88°
2026-05-08 04:01 42.48168 -90.38105 37950 ft 560 kts 88°
2026-05-08 04:02 42.48240 -90.27550 37951 ft 560 kts 88°
2026-05-08 04:02 42.48320 -90.16986 37950 ft 561 kts 88°
2026-05-08 04:03 42.48404 -90.06473 37946 ft 561 kts 88°
2026-05-08 04:03 42.48542 -89.90613 37946 ft 561 kts 88°
2026-05-08 04:04 42.48642 -89.80026 37949 ft 562 kts 88°
2026-05-08 04:04 42.48746 -89.69430 37953 ft 562 kts 87°
2026-05-08 04:05 42.48855 -89.58838 37949 ft 562 kts 87°
2026-05-08 04:05 42.48966 -89.48320 37942 ft 562 kts 87°
2026-05-08 04:06 42.49083 -89.37735 37948 ft 562 kts 87°
2026-05-08 04:06 42.49209 -89.27114 37951 ft 562 kts 87°
2026-05-08 04:07 42.49342 -89.16589 37951 ft 561 kts 87°
2026-05-08 04:07 42.49484 -89.06022 37954 ft 561 kts 87°
2026-05-08 04:08 42.49636 -88.95437 37954 ft 561 kts 87°
2026-05-08 04:08 42.49798 -88.84903 37952 ft 561 kts 87°
2026-05-08 04:09 42.49972 -88.74310 37956 ft 561 kts 86°
2026-05-08 04:09 42.50155 -88.63719 37951 ft 561 kts 86°
2026-05-08 04:10 42.50348 -88.53208 37958 ft 561 kts 86°
2026-05-08 04:10 42.50556 -88.42635 37955 ft 561 kts 86°
2026-05-08 04:11 42.50777 -88.32061 37956 ft 561 kts 86°
2026-05-08 04:11 42.50892 -88.26783 37791 ft 556 kts 86°
2026-05-08 04:11 42.51004 -88.21571 37270 ft 551 kts 86°
2026-05-08 04:12 42.51112 -88.16439 36695 ft 548 kts 86°
2026-05-08 04:12 42.51213 -88.11296 36121 ft 545 kts 86°
2026-05-08 04:12 42.51304 -88.06155 35590 ft 542 kts 86°
2026-05-08 04:12 42.51382 -88.01060 35105 ft 538 kts 86°
2026-05-08 04:13 42.51446 -87.96058 34652 ft 535 kts 85°
2026-05-08 04:13 42.51497 -87.91033 34198 ft 531 kts 85°
2026-05-08 04:13 42.51536 -87.86029 33691 ft 528 kts 85°
2026-05-08 04:13 42.51563 -87.81076 33152 ft 525 kts 85°
2026-05-08 04:14 42.51581 -87.76139 32661 ft 521 kts 86°
2026-05-08 04:14 42.51593 -87.71243 32188 ft 517 kts 86°
2026-05-08 04:14 42.51600 -87.66438 31728 ft 513 kts 85°
2026-05-08 04:14 42.51601 -87.61600 31257 ft 510 kts 85°
2026-05-08 04:15 42.51598 -87.56845 30790 ft 507 kts 85°
2026-05-08 04:15 42.51434 -87.52077 30064 ft 511 kts 97°
2026-05-08 04:15 42.50355 -87.47490 28530 ft 510 kts 118°
2026-05-08 04:15 42.48316 -87.43608 26807 ft 503 kts 139°
2026-05-08 04:16 42.45574 -87.40875 25135 ft 488 kts 160°
2026-05-08 04:16 42.42421 -87.39551 24046 ft 456 kts 180°
2026-05-08 04:16 42.39377 -87.39196 23583 ft 419 kts 189°
2026-05-08 04:16 42.36574 -87.39261 23173 ft 388 kts 194°
2026-05-08 04:17 42.34029 -87.39624 22650 ft 359 kts 203°
2026-05-08 04:17 42.31786 -87.40631 21947 ft 323 kts 221°
2026-05-08 04:17 42.29841 -87.42078 21143 ft 316 kts 220°
2026-05-08 04:17 42.27905 -87.43463 20277 ft 313 kts 219°
2026-05-08 04:18 42.25977 -87.44818 19471 ft 310 kts 219°
2026-05-08 04:18 42.24078 -87.46145 18724 ft 304 kts 218°
2026-05-08 04:18 42.22220 -87.47438 17934 ft 297 kts 218°
2026-05-08 04:18 42.20412 -87.48699 16955 ft 296 kts 217°
2026-05-08 04:19 42.18590 -87.49970 16067 ft 292 kts 217°
2026-05-08 04:19 42.16800 -87.51215 15242 ft 286 kts 217°
2026-05-08 04:19 42.15039 -87.52440 14445 ft 282 kts 217°
2026-05-08 04:19 42.13304 -87.53646 13644 ft 278 kts 216°
2026-05-08 04:20 42.11621 -87.54816 12774 ft 274 kts 216°
2026-05-08 04:20 42.09933 -87.55988 11932 ft 270 kts 216°
2026-05-08 04:20 42.08270 -87.57143 11101 ft 266 kts 215°
2026-05-08 04:20 42.06655 -87.58260 10123 ft 257 kts 215°
2026-05-08 04:21 42.05071 -87.59361 8890 ft 255 kts 214°
2026-05-08 04:21 42.03501 -87.60451 7653 ft 252 kts 213°
2026-05-08 04:21 42.01969 -87.61513 6538 ft 249 kts 212°
2026-05-08 04:21 42.00437 -87.62572 5412 ft 245 kts 212°
2026-05-08 04:22 41.98911 -87.63627 4447 ft 244 kts 211°
2026-05-08 04:22 41.97605 -87.64777 4152 ft 205 kts 234°
2026-05-08 04:22 41.97074 -87.66364 4012 ft 177 kts 261°
2026-05-08 04:22 41.96878 -87.67951 3809 ft 173 kts 265°
2026-05-08 04:23 41.96727 -87.69591 3546 ft 178 kts 266°
2026-05-08 04:23 41.96630 -87.71232 3312 ft 176 kts 270°
2026-05-08 04:23 41.96604 -87.72873 3078 ft 176 kts 271°
2026-05-08 04:23 41.96595 -87.74504 2829 ft 171 kts 272°
2026-05-08 04:24 41.96592 -87.76039 2608 ft 157 kts 272°
2026-05-08 04:24 41.96592 -87.77462 2405 ft 152 kts 272°
2026-05-08 04:24 41.96592 -87.78865 2190 ft 147 kts 272°
2026-05-08 04:24 41.96588 -87.80189 1997 ft 137 kts 272°
2026-05-08 04:25 41.96587 -87.81476 1832 ft 138 kts 271°
2026-05-08 04:25 41.96585 -87.82768 1641 ft 137 kts 271°
2026-05-08 04:25 41.96583 -87.84054 1449 ft 139 kts 271°
2026-05-08 04:25 41.96582 -87.85368 1248 ft 142 kts 270°
2026-05-08 04:26 41.96579 -87.86694 1057 ft 143 kts 270°
2026-05-08 04:26 41.96583 -87.88029 883 ft 147 kts 269°
2026-05-08 04:26 41.96573 -87.89403 703 ft 147 kts 270°
2026-05-08 04:26 41.96575 -87.90700 675 ft 126 kts 269°
2026-05-08 04:27 41.96573 -87.91631 674 ft 73 kts 270°
2026-05-08 04:27 41.96570 -87.92086 675 ft 33 kts 269°
2026-05-08 04:27 41.96571 -87.92325 674 ft 19 kts 270°
2026-05-08 04:27 41.96570 -87.92501 675 ft 19 kts 270°
2026-05-08 04:28 41.96592 -87.92643 675 ft 14 kts 321°
2026-05-08 04:28 41.96679 -87.92662 674 ft 11 kts
2026-05-08 04:28 41.96733 -87.92605 673 ft 11 kts 74°
2026-05-08 04:28 41.96736 -87.92502 673 ft 11 kts 89°
2026-05-08 04:29 41.96737 -87.92399 673 ft 11 kts 90°
2026-05-08 04:29 41.96737 -87.92243 673 ft 22 kts 90°
2026-05-08 04:29 41.96737 -87.92037 673 ft 22 kts 90°
2026-05-08 04:29 41.96738 -87.91828 674 ft 22 kts 89°
2026-05-08 04:30 41.96738 -87.91619 674 ft 22 kts 90°
2026-05-08 04:30 41.96739 -87.91410 674 ft 22 kts 89°
2026-05-08 04:30 41.96738 -87.91202 674 ft 22 kts 90°
2026-05-08 04:30 41.96739 -87.90993 674 ft 22 kts 89°
2026-05-08 04:31 41.96739 -87.90783 674 ft 22 kts 90°
2026-05-08 04:31 41.96741 -87.90574 673 ft 22 kts 89°
2026-05-08 04:31 41.96740 -87.90369 674 ft 22 kts 90°
2026-05-08 04:31 41.96740 -87.90159 674 ft 22 kts 89°
2026-05-08 04:32 41.96740 -87.89948 674 ft 22 kts 89°
2026-05-08 04:32 41.96741 -87.89743 674 ft 22 kts 90°
2026-05-08 04:32 41.96742 -87.89614 674 ft 10 kts 89°
2026-05-08 04:32 41.96743 -87.89517 674 ft 10 kts 89°
2026-05-08 04:33 41.96780 -87.89444 674 ft 10 kts 16°
2026-05-08 04:33 41.96852 -87.89437 675 ft 11 kts
2026-05-08 04:33 41.96939 -87.89436 675 ft 13 kts 360°
2026-05-08 04:33 41.97030 -87.89437 674 ft 13 kts 359°
2026-05-08 04:34 41.97123 -87.89439 674 ft 14 kts
2026-05-08 04:34 41.97238 -87.89435 674 ft 17 kts
2026-05-08 04:34 41.97357 -87.89431 674 ft 17 kts 359°
2026-05-08 04:34 41.97423 -87.89432 674 ft 12 kts 359°
2026-05-08 04:35 41.97483 -87.89496 674 ft 12 kts 307°
2026-05-08 04:35 41.97529 -87.89584 674 ft 12 kts 299°
2026-05-08 04:35 41.97558 -87.89682 674 ft 8 kts 290°
2026-05-08 04:35 41.97573 -87.89729 674 ft 5 kts 301°
2026-05-08 04:36 41.97606 -87.89738 674 ft 5 kts
2026-05-08 04:36 41.97641 -87.89731 674 ft 5 kts
2026-05-08 04:36 41.97646 -87.89730 674 ft 0 kts